                ,  0.301,  0.397,  0.494,  0.590,  0.687,  0.784,  0.880,  0.977,  1.073,  1.170,  1.267,  1.363,  1.460,  1.556,  1.653,  1.749,  1.846,  1.943,  2.039,  2.136,  2.232,  2.329,  2.426,  2.522,  2.619,  2.715,  2.812,  2.909,  3.005,  3.102,  3.198,  3.295,  3.392,  3.488,  3.585,  3.681,  3.778,  3.875,  3.971,  4.068,  4.164,  4.261,  4.357,  4.454,  4.551,  4.647,  4.744,  4.840,  4.937,  5.034,  5.130,  5.227,  5.323,  5.420,  5.517,  5.613,  5.710,  5.806,  5.903,  6.000,  6.096,  6.193,  6.289,  6.386,  6.483,  6.579,  6.676,  6.772,  6.869,  6.965,  7.062,  7.159,  7.255,  7.352,  7.448,  7.545,  7.642,  7.738,  7.835,  7.931
2016/03/23 00:00,  999.0,  999.0,  999.0,  999.0,  999.0,  999.0,  999.0,  999.0,  999.0,  999.0,  999.0,  999.0,  999.0,  999.0,  999.0,  999.0,  999.0,  999.0,  999.0,  999.0,  999.0,    1.8,    2.1,    1.6,    0.8,    0.2,   -0.4,   -0.0,    0.3,    0.1,   -0.1,   -0.0,    0.4,   -0.0,    0.2,    0.3,   -0.0,    0.2,   -0.1,   -0.2,   -0.1,   -0.2,   -0.4,   -0.1,    0.1,    0.2,    0.2,    0.0,    0.1,   -0.1,    0.6,    0.3,    0.2,    0.1,    0.1,   -0.1,    0.2,   -0.2,   -0.1,    0.4,    0.0,    0.2,    0.0,   -0.2,    0.3,    0.1,   -0.1,  999.0,  999.0,  999.0,    0.3,    0.1,  999.0,    0.2,   -0.3,  999.0,  999.0,  999.0,  999.0,  999.0
2016/03/23 00:10,  999.0,  999.0,  999.0,  999.0,  999.0,  999.0,  999.0,  999.0,  999.0,  999.0,  999.0,  999.0,  999.0,  999.0,  999.0,  999.0,  999.0,  999.0,  999.0,  999.0,  999.0,  999.0,  999.0,    0.9,    0.9,    0.6,    0.8,    0.6,    0.3,    0.2,    0.2,   -0.1,   -0.0,    0.2,   -0.2,   -0.1,    0.0,    0.1,    0.3,   -0.1,   -0.1,   -0.2,    0.1,    0.0,   -0.0,  999.0,  999.0,    0.1,    0.1,   -0.0,   -0.1,   -0.0,    0.2,    0.1,    0.1,   -0.1,    0.0,    0.0,   -0.1,   -0.1,   -0.2,    0.2,    0.1,   -0.0,    0.2,    0.1,   -0.1,    0.1,   -0.2,  999.0,    0.1,  999.0,    0.1,  999.0,   -0.1,  999.0,  999.0,  999.0,  999.0,  999.0
2016/03/23 00:20,  999.0,  999.0,  999.0,  999.0,  999.0,  999.0,  999.0,  999.0,  999.0,  999.0,  999.0,  999.0,  999.0,   -0.4,    5.1,    5.5,    4.7,  999.0,  999.0,  999.0,  999.0,  999.0,  999.0,    6.6,    1.9,    1.8,    1.3,    0.4,    0.4,    0.1,    0.1,    0.4,    0.4,    0.4,    0.7,    0.4,    0.5,    0.5,    0.5,    0.2,   -0.1,    0.0,    0.1,    0.1,   -0.1,   -0.1,   -0.0,   -0.1,   -0.1,   -0.3,   -0.1,    0.2,   -0.1,   -0.0,    0.1,   -0.1,    0.1,    0.0,    0.0,    0.2,    0.1,    0.0,    0.1,    0.1,    0.1,    0.1,   -0.2,    0.1,  999.0,    0.5,    0.1,    0.1,    0.1,  999.0,   -0.2,  999.0,  999.0,  999.0,  999.0,  999.0
2016/03/23 00:30,  999.0,  999.0,  999.0,  999.0,  999.0,  999.0,  999.0,  999.0,  999.0,  999.0,  999.0,  999.0,    1.8,  999.0,    4.4,  999.0,  999.0,  999.0,   14.1,  999.0,  999.0,   14.7,  999.0,    1.8,    2.4,    2.1,    0.6,    0.5,    0.4,    0.3,    0.1,   -0.0,    0.1,    0.3,    0.2,    0.3,    0.4,    0.2,    0.1,    0.0,    0.0,    0.0,    0.1,   -0.1,    0.0,    0.1,   -0.2,    0.0,    0.0,    0.1,   -0.0,   -0.1,    0.1,    0.0,    0.2,    0.1,    0.2,   -0.0,    0.1,   -0.1,   -0.0,   -0.1,    0.0,    0.0,    0.1,    0.1,   -0.2,   -0.1,    0.1,    0.0,   -0.0,   -0.2,   -0.3,   -0.3,   -0.3,  999.0,  999.0,  999.0,  999.0,  999.0
2016/03/23 00:40,  999.0,  999.0,  999.0,  999.0,  999.0,  999.0,  999.0,  999.0,  999.0,  999.0,   11.9,   11.1,   15.7,   18.0,   16.9,   16.1,   17.2,   17.3,   20.8,   20.1,  999.0,  999.0,  999.0,  999.0,  999.0,  999.0,  999.0,  999.0,  999.0,    0.2,    0.2,    0.0,   -0.0,    0.2,    0.1,    0.3,    0.4,   -0.0,    0.4,    0.5,   -0.0,   -0.2,    0.2,    0.1,   -0.0,    0.0,    0.2,    0.0,    0.0,    0.1,   -0.1,    0.1,   -0.3,    0.1,   -0.1,   -0.1,    0.1,    0.2,   -0.1,    0.0,   -0.0,    0.2,    0.0,    0.4,    0.0,    0.2,    0.1,   -0.0,  999.0,  999.0,  999.0,  999.0,    0.2,  999.0,  999.0,  999.0,  999.0,  999.0,  999.0,  999.0
2016/03/23 00:50,  999.0,  999.0,  999.0,  999.0,  999.0,  999.0,  999.0,  999.0,   10.5,   13.9,   13.6,   13.8,   18.7,   16.0,   17.0,   17.6,   19.9,   22.0,   24.2,   25.1,   25.3,   26.0,   24.7,  999.0,  999.0,  999.0,  999.0,  999.0,  999.0,  999.0,  999.0,  999.0,  999.0,  999.0,  999.0,  999.0,  999.0,  999.0,  999.0,  999.0,   -0.2,   -0.0,  999.0,  999.0,  999.0,    0.3,    0.0,    0.0,   -0.2,  999.0,    0.2,    0.0,   -0.3,    0.3,    0.2,    0.1,   -0.2,   -0.1,    0.1,    0.3,   -0.2,   -0.2,   -0.9,   -0.6,   -0.2,   -0.7,   -0.5,    0.1,  999.0,  999.0,  999.0,  999.0,   -0.1,  999.0,  999.0,  999.0,  999.0,  999.0,  999.0,  999.0
2016/03/23 01:00,  999.0,  999.0,  999.0,  999.0,  999.0,  999.0,  999.0,  999.0,  999.0,   13.9,   16.3,  999.0,   17.5,   21.7,   19.4,   21.3,   20.1,   21.7,   23.6,   23.6,   24.3,   24.7,   25.3,   26.3,  999.0,  999.0,   16.1,   16.9,   17.1,   16.6,   16.4,   10.8,  999.0,  999.0,  999.0,    0.4,  999.0,  999.0,  999.0,    0.1,   -0.1,   -0.1,  999.0,  999.0,   -0.4,   -0.1,    0.1,    0.5,   -0.0,   -0.3,   -0.1,  999.0,   -0.2,   -0.0,    0.0,    0.1,    0.1,   -0.0,    0.4,    0.2,   -0.1,   -0.2,    0.2,   -0.2,    0.1,  999.0,    0.2,    0.1,  999.0,  999.0,   -0.1,    0.1,  999.0,  999.0,  999.0,  999.0,  999.0,  999.0,  999.0,  999.0
2016/03/23 01:10,  999.0,  999.0,  999.0,  999.0,  999.0,  999.0,   13.9,   14.0,   11.2,   13.0,   14.5,   16.4,   18.2,   18.4,   19.8,   20.5,   21.2,   22.2,   22.7,   23.7,   24.9,   24.8,   25.5,   26.3,  999.0,  999.0,   18.1,   16.2,   16.0,   15.2,   16.0,   13.5,  999.0,   -0.0,    0.2,    0.3,  999.0,  999.0,  999.0,    0.1,    0.2,  999.0,  999.0,    1.1,  999.0,   -0.4,   -0.3,  999.0,    0.4,  999.0,  999.0,   -0.2,   -0.2,    0.2,    0.2,   -0.1,    0.0,    0.0,    0.1,   -0.2,   -0.3,   -0.0,   -0.1,   -0.1,   -0.1,    0.0,   -0.0,    0.1,    0.1,  999.0,  999.0,  999.0,  999.0,  999.0,  999.0,  999.0,  999.0,  999.0,  999.0,  999.0
2016/03/23 01:20,  999.0,  999.0,  999.0,  999.0,  999.0,  999.0,  999.0,  999.0,   13.7,   16.4,   13.7,   15.6,   18.1,   19.8,   21.0,   21.9,   21.8,   22.7,   23.6,   23.3,   24.7,   24.8,   26.0,   25.9,   25.4,   24.0,   23.5,   22.8,   22.6,   22.8,  999.0,  999.0,  999.0,  999.0,  999.0,  999.0,  999.0,  999.0,  999.0,   -0.1,  999.0,  999.0,    0.0,   -0.0,    0.1,    0.1,    0.4,  999.0,   -0.0,   -0.0,    0.0,    0.1,   -0.0,    0.1,    0.0,    0.1,   -0.0,   -0.1,   -0.2,    0.1,   -0.2,   -0.2,   -0.1,    0.0,   -0.1,  999.0,  999.0,   -0.1,   -0.2,  999.0,  999.0,    0.1,    0.1,  999.0,  999.0,  999.0,  999.0,  999.0,  999.0,  999.0
2016/03/23 01:30,  999.0,    5.7,  999.0,    7.6,    9.5,    5.9,    9.4,   11.1,   11.5,   13.7,   16.1,   16.3,   16.4,   17.1,   18.9,   20.5,   22.1,   23.5,   24.7,   25.4,   24.7,   24.0,   24.3,   24.4,   24.7,   24.5,   24.5,   24.7,  999.0,  999.0,  999.0,  999.0,  999.0,  999.0,  999.0,  999.0,  999.0,  999.0,  999.0,  999.0,  999.0,    0.1,  999.0,  999.0,  999.0,  999.0,  999.0,  999.0,  999.0,  999.0,    0.1,  999.0,    0.1,    0.1,   -0.0,    0.1,    0.2,   -0.6,   -0.1,   -0.0,    0.1,    0.1,    0.1,    0.1,    0.1,    0.2,   -0.0,    0.0,  999.0,  999.0,  999.0,  999.0,  999.0,  999.0,  999.0,  999.0,  999.0,  999.0,  999.0,  999.0
2016/03/23 01:40,  999.0,  999.0,  999.0,  999.0,  999.0,  999.0,   12.2,  999.0,   13.7,   13.9,   14.2,   17.3,   17.4,   17.9,   17.4,   18.4,   19.7,   21.3,   22.9,   24.0,   25.2,   25.6,  999.0,  999.0,  999.0,   11.1,   -0.2,   -0.1,   -0.4,   -0.1,   -0.0,   -0.3,    0.0,   -0.1,   -0.2,  999.0,  999.0,   -0.3,  999.0,   -0.2,   -0.5,   -0.3,   -0.4,   -0.1,   -0.1,   -0.1,   -0.1,    0.0,    0.1,   -0.1,   -0.0,    0.3,    0.1,    0.0,    0.2,    0.1,    0.1,   -0.1,    0.1,   -0.2,    0.0,    0.1,    0.0,   -0.0,    0.2,    0.1,   -0.3,    0.2,   -0.1,  999.0,  999.0,  999.0,  999.0,  999.0,  999.0,  999.0,  999.0,  999.0,  999.0,  999.0
2016/03/23 01:50,  999.0,  999.0,  999.0,  999.0,  999.0,  999.0,  999.0,   12.3,   13.2,   16.7,   16.3,   18.6,   20.4,   21.2,   20.9,   21.3,   21.8,   21.3,   21.2,   21.7,   22.5,   22.7,   23.7,   24.4,   25.9,   27.1,   25.6,   27.0,   26.7,   27.9,   23.2,   14.6,   15.0,  999.0,  999.0,  999.0,  999.0,  999.0,   -0.1,   -0.0,   -0.3,   -0.3,    0.0,   -0.0,   -0.1,   -0.2,   -0.1,   -0.2,   -0.0,    0.2,    0.1,   -0.2,    0.1,    0.3,    0.0,    0.2,   -0.1,   -0.2,   -0.0,   -0.2,   -0.1,    0.0,   -0.0,    0.0,    0.1,    0.1,    0.1,   -0.1,  999.0,    0.1,  999.0,  999.0,  999.0,  999.0,  999.0,  999.0,  999.0,  999.0,  999.0,  999.0
2016/03/23 02:00,  999.0,  999.0,  999.0,  999.0,  999.0,  999.0,  999.0,  999.0,   12.2,    6.8,   10.1,    9.6,   11.1,   10.3,   14.2,   13.9,   16.2,   18.2,   20.0,   20.2,   19.0,   21.3,   22.5,   21.5,   21.1,   26.1,   27.2,   28.0,   29.1,   16.7,    0.5,  999.0,   -0.0,   -0.4,  999.0,  999.0,  999.0,  999.0,  999.0,    0.0,  999.0,  999.0,  999.0,   -0.1,   -0.1,  999.0,  999.0,  999.0,  999.0,  999.0,  999.0,    0.0,    0.0,   -0.0,   -0.1,   -0.1,    0.0,  999.0,  999.0,  999.0,    0.1,    0.4,  999.0,   -0.3,    0.1,  999.0,  999.0,  999.0,  999.0,  999.0,  999.0,  999.0,  999.0,  999.0,  999.0,  999.0,  999.0,  999.0,  999.0,  999.0
2016/03/23 02:10,  999.0,  999.0,  999.0,    4.8,    3.5,    1.4,  999.0,    3.8,    4.0,    5.1,    6.3,    9.0,    9.7,   11.5,   12.9,   14.2,   14.6,   17.6,   20.0,   20.0,   19.5,   22.4,   18.2,   15.3,  999.0,  999.0,  999.0,  999.0,  999.0,  999.0,   -0.1,   -0.0,   -0.1,    0.1,    0.1,  999.0,  999.0,   -0.1,  999.0,  999.0,   -0.2,   -0.0,    0.2,    0.2,    0.2,    0.1,    0.2,   -0.2,    0.0,   -0.0,  999.0,   -0.1,   -0.4,    0.1,    0.1,   -0.1,    0.3,   -0.2,   -0.2,   -0.0,   -0.5,    0.0,  999.0,   -0.4,   -0.2,    0.2,  999.0,  999.0,   -0.2,  999.0,  999.0,  999.0,  999.0,  999.0,  999.0,  999.0,  999.0,  999.0,  999.0,  999.0
2016/03/23 02:20,  999.0,   -0.0,  999.0,    4.9,    0.6,    2.8,    3.3,    3.4,    7.7,    8.6,    7.6,   11.6,   14.3,   15.2,   14.8,   12.5,   12.6,   13.0,   12.3,   12.8,   12.1,   12.1,  999.0,   11.5,   11.0,    5.1,   -0.7,    9.0,   -0.5,   -0.2,   -0.3,   -0.2,    0.4,    0.2,   -0.3,  999.0,  999.0,  999.0,   -0.1,  999.0,  999.0,   -0.2,   -0.3,   -0.3,   -0.0,    0.1,   -0.1,   -0.4,   -0.2,  999.0,   -0.0,   -0.4,  999.0,  999.0,    0.1,    0.3,   -0.1,   -0.1,   -0.1,   -0.1,    0.3,    0.3,   -0.1,  999.0,  999.0,   -0.3,    0.3,  999.0,   -0.1,  999.0,  999.0,  999.0,  999.0,  999.0,  999.0,  999.0,  999.0,  999.0,  999.0,  999.0
2016/03/23 02:30,  999.0,    0.5,  999.0,   -3.7,   -1.3,    0.1,  999.0,  999.0,  999.0,   -3.8,  999.0,    4.8,    7.4,    5.7,    5.3,    5.2,    4.3,    4.2,    5.2,    7.8,  999.0,  999.0,  999.0,  999.0,   -0.3,   -0.6,   -0.1,    0.0,    0.0,  999.0,  999.0,  999.0,  999.0,   -0.0,  999.0,  999.0,    0.6,  999.0,  999.0,    0.3,   -0.5,  999.0,    0.2,   -0.1,  999.0,   -0.3,    0.1,  999.0,    0.1,   -0.0,    0.2,  999.0,  999.0,    0.1,  999.0,   -0.3,   -0.0,    0.2,    0.1,    0.0,   -0.2,   -0.1,   -0.2,   -0.1,  999.0,   -0.2,   -0.1,    0.1,  999.0,  999.0,  999.0,  999.0,  999.0,  999.0,  999.0,  999.0,  999.0,  999.0,  999.0,  999.0
2016/03/23 02:40,  999.0,   -0.5,   -0.6,    0.5,   -1.1,   -0.3,   -0.8,    0.7,    0.9,    0.4,    1.6,    1.4,    1.3,    1.7,    0.6,    0.6,    0.4,    0.2,    0.1,    0.1,    0.3,    0.2,    0.2,   -0.9,   -0.0,   -0.1,   -0.3,   -0.2,   -0.1,   -0.2,   -0.3,   -0.1,    0.2,   -0.1,  999.0,   -0.1,    0.1,    0.0,   -0.0,   -0.2,  999.0,   -0.7,   -0.3,    0.2,    0.1,   -0.2,   -0.1,  999.0,   -0.1,    0.1,   -0.2,  999.0,    0.2,   -0.2,    0.3,    0.4,    0.1,   -0.1,    0.2,   -0.2,   -0.4,   -0.0,    0.2,  999.0,  999.0,    0.1,  999.0,   -0.1,   -0.1,  999.0,  999.0,  999.0,  999.0,  999.0,  999.0,  999.0,  999.0,  999.0,  999.0,  999.0
2016/03/23 02:50,  999.0,   -0.2,   -0.3,    0.2,    0.6,    0.4,    0.4,   -1.1,   -1.0,    0.4,    2.0,    2.0,    1.2,    0.6,    0.4,   -1.0,   -1.1,   -0.5,   -0.7,   -0.4,   -1.2,   -2.0,  999.0,   -2.1,   -1.7,   -0.8,   -0.8,   -0.2,   -0.8,   -0.8,  999.0,   -0.5,  999.0,  999.0,    0.1,  999.0,    0.2,    0.8,  999.0,   -0.2,   -0.4,   -0.5,   -0.2,  999.0,  999.0,   -0.2,  999.0,   -0.1,  999.0,   -0.0,   -0.1,   -0.1,  999.0,   -0.5,   -0.0,    0.3,   -0.1,    0.1,    0.3,   -0.0,    0.2,    0.2,    0.6,    0.0,  999.0,   -0.3,    0.6,  999.0,  999.0,  999.0,  999.0,  999.0,  999.0,  999.0,  999.0,  999.0,  999.0,  999.0,  999.0,  999.0
2016/03/23 03:00,  999.0,   -0.1,   -0.0,    0.1,    0.1,    0.0,    0.1,    0.2,    0.0,    0.1,    0.9,    1.2,    1.0,    1.5,    0.8,    0.8,    0.4,    0.1,    0.2,   -0.1,    0.1,    0.5,    0.5,    0.0,   -1.0,   -0.2,   -0.1,    0.0,   -0.2,   -0.0,   -0.0,   -0.1,   -0.0,    0.1,    0.1,    0.0,   -0.2,    0.1,    0.6,    0.1,   -0.6,   -0.4,   -0.2,   -0.1,   -0.3,   -0.1,   -0.1,   -0.4,  999.0,   -0.1,    0.0,   -0.1,    0.9,    0.3,    0.9,    0.4,    0.0,    0.0,   -0.1,   -0.2,    0.1,   -0.0,   -0.2,   -0.1,  999.0,    0.0,  999.0,  999.0,  999.0,  999.0,  999.0,  999.0,  999.0,  999.0,  999.0,  999.0,  999.0,  999.0,  999.0,  999.0
2016/03/23 03:10,  999.0,   -0.0,   -0.2,    0.1,    0.2,   -0.1,    0.0,   -0.1,   -0.1,    0.3,    0.6,    0.3,    0.4,    0.5,    0.2,    0.1,   -0.0,   -0.0,   -0.1,    0.2,  999.0,  999.0,  999.0,  999.0,  999.0,  999.0,  999.0,  999.0,  999.0,    0.1,   -0.0,   -0.0,  999.0,   -0.1,  999.0,  999.0,  999.0,  999.0,    0.6,   -0.1,   -0.5,   -0.5,  999.0,   -0.3,   -0.2,    0.1,    0.1,    0.1,    0.3,   -0.1,   -0.1,  999.0,    0.8,    0.2,  999.0,    0.2,    0.0,    0.0,    0.2,    0.2,  999.0,  999.0,   -0.7,  999.0,    0.1,    0.3,    0.2,  999.0,  999.0,  999.0,  999.0,  999.0,  999.0,  999.0,  999.0,  999.0,  999.0,  999.0,  999.0,  999.0
2016/03/23 03:20,  999.0,    0.2,   -0.2,   -0.1,    0.2,    0.2,    0.0,   -0.3,   -0.1,    0.1,    0.0,   -0.1,   -0.0,    0.2,   -0.2,   -0.2,   -0.1,   -0.2,   -0.3,    2.3,    1.3,   -0.7,    0.8,   -0.9,   -0.7,   -0.4,   -0.7,   -0.5,   -0.3,    0.2,   -0.2,   -0.0,  999.0,  999.0,   -0.3,   -0.6,   -0.3,  999.0,   -0.1,   -0.2,  999.0,   -0.4,    0.0,  999.0,   -0.1,  999.0,    0.1,    0.5,  999.0,    0.1,   -0.0,  999.0,  999.0,  999.0,    0.0,    0.1,   -0.1,    0.4,   -0.1,   -0.1,   -0.1,  999.0,   -0.1,    0.0,  999.0,   -0.1,  999.0,  999.0,  999.0,  999.0,  999.0,  999.0,  999.0,  999.0,  999.0,  999.0,  999.0,  999.0,  999.0,  999.0
2016/03/23 03:30,  999.0,   -0.1,    0.1,   -0.3,   -0.1,    0.1,    0.0,   -0.3,    0.0,    0.4,    1.5,    0.5,    0.5,    1.2,    0.4,   -0.4,   -0.7,    8.6,  999.0,    7.6,   16.6,   15.1,   15.8,   15.0,   15.6,   17.5,   12.0,  999.0,  999.0,  999.0,  999.0,  999.0,  999.0,  999.0,  999.0,  999.0,  999.0,  999.0,  999.0,  999.0,  999.0,  999.0,  999.0,  999.0,  999.0,  999.0,  999.0,  999.0,  999.0,  999.0,  999.0,  999.0,  999.0,  999.0,  999.0,  999.0,   -0.1,  999.0,  999.0,  999.0,  999.0,  999.0,  999.0,    0.4,  999.0,  999.0,  999.0,  999.0,  999.0,  999.0,  999.0,  999.0,  999.0,  999.0,  999.0,  999.0,  999.0,  999.0,  999.0,  999.0
2016/03/23 03:40,  999.0,    0.1,   -0.2,   -0.2,    0.0,  999.0,  999.0,   -0.2,    0.6,    2.2,    2.1,    2.2,    6.2,   10.7,   13.0,   15.5,   13.0,   18.8,   20.2,   23.9,   26.4,  999.0,   28.7,   29.2,   28.5,   28.2,  999.0,  999.0,  999.0,  999.0,  999.0,  999.0,  999.0,  999.0,  999.0,  999.0,  999.0,  999.0,  999.0,  999.0,  999.0,  999.0,  999.0,   -0.0,  999.0,  999.0,  999.0,  999.0,   -0.1,  999.0,  999.0,  999.0,    0.1,  999.0,    0.0,  999.0,  999.0,   -0.1,    0.2,  999.0,  999.0,  999.0,  999.0,   -0.1,  999.0,    0.0,  999.0,  999.0,  999.0,  999.0,  999.0,  999.0,  999.0,  999.0,  999.0,  999.0,  999.0,  999.0,  999.0,  999.0
2016/03/23 03:50,  999.0,   -0.1,   -0.2,    0.0,    0.0,   -0.1,  999.0,   -0.3,   -0.2,    1.0,  999.0,  999.0,    1.2,    1.4,   -0.2,  999.0,    2.2,  999.0,  999.0,    7.6,  999.0,  999.0,  999.0,  999.0,  999.0,  999.0,  999.0,  999.0,  999.0,  999.0,  999.0,  999.0,  999.0,  999.0,  999.0,  999.0,  999.0,  999.0,  999.0,  999.0,  999.0,  999.0,  999.0,  999.0,  999.0,  999.0,  999.0,  999.0,  999.0,  999.0,  999.0,  999.0,  999.0,   -0.3,  999.0,  999.0,  999.0,  999.0,    0.1,    0.0,    0.0,  999.0,  999.0,    0.0,  999.0,  999.0,   -0.0,  999.0,    0.2,  999.0,  999.0,  999.0,  999.0,  999.0,  999.0,  999.0,  999.0,  999.0,  999.0,  999.0
2016/03/23 04:00,  999.0,    0.1,   -0.0,    0.1,   -0.3,   -0.2,    0.1,  999.0,    0.3,    0.2,    1.0,    1.2,    1.2,  999.0,  999.0,  999.0,  999.0,  999.0,  999.0,  999.0,  999.0,  999.0,  999.0,  999.0,  999.0,  999.0,  999.0,  999.0,  999.0,  999.0,  999.0,  999.0,  999.0,  999.0,  999.0,  999.0,  999.0,  999.0,  999.0,  999.0,  999.0,  999.0,  999.0,  999.0,   -0.1,   -0.0,   -0.2,  999.0,  999.0,  999.0,  999.0,   -0.1,   -0.2,  999.0,  999.0,  999.0,   -0.3,   -0.2,   -0.3,  999.0,   -0.1,    0.1,   -0.1,    0.2,    0.6,  999.0,  999.0,  999.0,  999.0,  999.0,  999.0,  999.0,  999.0,  999.0,  999.0,  999.0,  999.0,  999.0,  999.0,  999.0
2016/03/23 04:10,  999.0,    0.0,    0.0,    0.1,   -0.1,    0.1,   -0.1,    0.0,    0.3,    0.3,    0.7,    0.5,    0.7,    1.0,    0.6,    0.4,  999.0,   -0.1,   -0.1,  999.0,  999.0,  999.0,  999.0,  999.0,  999.0,  999.0,  999.0,  999.0,  999.0,   -0.4,   -0.2,   -0.2,  999.0,    0.0,   -0.2,  999.0,  999.0,   -0.1,  999.0,   -0.0,   -0.3,  999.0,  999.0,  999.0,    0.2,  999.0,  999.0,  999.0,    0.2,   -0.1,  999.0,    0.0,    0.1,    0.2,  999.0,   -0.2,  999.0,  999.0,   -0.1,   -0.1,  999.0,   -0.4,    0.0,    0.2,  999.0,    0.1,    0.1,  999.0,  999.0,  999.0,  999.0,  999.0,  999.0,  999.0,  999.0,  999.0,  999.0,  999.0,  999.0,  999.0
2016/03/23 04:20,  999.0,  999.0,   -0.2,   -0.0,    0.2,    0.2,    0.2,    0.2,    0.1,    0.6,    1.2,    0.9,    0.5,    0.7,    0.3,    0.4,   -0.1,    0.1,  999.0,  999.0,  999.0,  999.0,  999.0,  999.0,  999.0,  999.0,  999.0,  999.0,  999.0,  999.0,  999.0,  999.0,  999.0,  999.0,  999.0,  999.0,  999.0,  999.0,  999.0,  999.0,  999.0,  999.0,  999.0,   -0.1,  999.0,   -0.2,   -0.0,  999.0,  999.0,   -0.2,   -0.5,   -0.2,   -0.2,  999.0,  999.0,    0.3,    0.5,    0.4,  999.0,   -0.2,   -0.0,  999.0,   -0.4,   -0.1,   -0.0,  999.0,  999.0,  999.0,  999.0,  999.0,  999.0,  999.0,  999.0,  999.0,  999.0,  999.0,  999.0,  999.0,  999.0,  999.0
2016/03/23 04:30,  999.0,  999.0,    0.1,    0.3,   -0.1,   -0.6,   -0.1,   -0.0,    0.2,    0.6,    1.2,    1.1,    0.7,    0.6,    1.1,  999.0,  999.0,  999.0,  999.0,  999.0,  999.0,  999.0,  999.0,  999.0,  999.0,  999.0,  999.0,  999.0,  999.0,  999.0,  999.0,  999.0,  999.0,  999.0,  999.0,  999.0,  999.0,  999.0,  999.0,  999.0,  999.0,  999.0,  999.0,  999.0,  999.0,  999.0,  999.0,  999.0,   -0.1,  999.0,  999.0,  999.0,  999.0,  999.0,  999.0,   -0.0,  999.0,    0.3,    0.4,  999.0,  999.0,   -0.0,    0.1,    0.2,  999.0,  999.0,   -0.1,  999.0,  999.0,  999.0,  999.0,  999.0,  999.0,  999.0,  999.0,  999.0,  999.0,  999.0,  999.0,  999.0
2016/03/23 04:40,  999.0,  999.0,    0.2,    0.0,   -0.4,    0.1,    0.6,    0.6,    0.6,    0.8,    0.7,    0.6,    0.4,    0.2,    0.5,  999.0,  999.0,  999.0,  999.0,  999.0,  999.0,   12.0,   12.6,   14.6,   14.5,   14.7,   14.2,   16.1,  999.0,  999.0,  999.0,  999.0,  999.0,    0.2,  999.0,  999.0,  999.0,  999.0,  999.0,  999.0,  999.0,  999.0,  999.0,  999.0,   -0.0,  999.0,  999.0,  999.0,  999.0,   -0.1,  999.0,  999.0,  999.0,  999.0,   -0.0,    0.2,    0.1,   -0.3,    0.1,    0.0,    0.1,    0.0,   -0.0,   -0.2,   -0.4,    0.5,   -0.1,   -0.1,   -0.4,  999.0,  999.0,  999.0,  999.0,  999.0,  999.0,  999.0,  999.0,  999.0,  999.0,  999.0
2016/03/23 04:50,  999.0,    0.2,   -0.0,    0.1,   -0.3,   -0.5,    0.6,   -0.2,    0.1,    0.9,    1.2,    0.5,    0.8,    0.3,    0.3,    0.5,    0.4,    4.0,  999.0,  999.0,  999.0,   12.6,   13.5,   13.4,   13.7,   14.9,   14.6,   17.1,  999.0,  999.0,  999.0,  999.0,  999.0,  999.0,  999.0,  999.0,  999.0,  999.0,  999.0,    0.1,  999.0,  999.0,    0.3,  999.0,   -0.3,   -0.4,   -0.1,  999.0,   -0.4,    0.1,   -0.3,  999.0,    0.3,    0.3,    0.2,   -0.1,   -0.1,    0.1,    0.1,    0.1,   -0.1,   -0.0,   -0.1,   -0.2,    0.1,    0.2,    0.3,    0.2,    0.3,  999.0,  999.0,  999.0,  999.0,  999.0,  999.0,  999.0,  999.0,  999.0,  999.0,  999.0
2016/03/23 05:00,  999.0,  999.0,   -0.1,    0.2,   -0.1,   -0.1,    0.3,    0.2,    0.3,    0.8,    1.3,    0.9,    0.5,    1.1,    0.5,    0.7,    0.5,    0.8,    0.1,  999.0,  999.0,  999.0,  999.0,  999.0,  999.0,  999.0,   -0.7,   -0.3,   -0.3,   -0.1,   -0.1,   -0.3,    0.2,   -0.0,  999.0,  999.0,  999.0,   -0.3,   -0.3,   -0.3,   -0.2,   -0.3,   -0.1,   -0.2,  999.0,  999.0,  999.0,  999.0,   -0.1,   -0.4,  999.0,    0.2,   -0.1,   -0.2,    0.3,    0.3,    0.1,    0.1,    0.3,    0.0,  999.0,    0.1,    0.1,   -0.2,   -0.4,    0.2,   -0.1,   -0.2,  999.0,  999.0,  999.0,  999.0,  999.0,  999.0,  999.0,  999.0,  999.0,  999.0,  999.0,  999.0
2016/03/23 05:10,  999.0,  999.0,   -0.1,   -0.0,    0.1,   -0.1,    0.1,    0.3,    0.4,    0.5,    1.1,    1.0,    0.6,    0.4,    0.2,    0.3,    0.4,    0.5,    0.1,    0.4,    0.2,  999.0,  999.0,  999.0,  999.0,  999.0,   -0.6,   -1.2,   -0.3,    0.1,   -0.0,   -0.2,   -0.0,    0.2,   -0.2,   -0.0,    0.0,  999.0,  999.0,   -0.4,   -0.5,   -0.0,   -0.3,  999.0,    0.0,   -0.3,   -0.3,  999.0,    0.3,  999.0,   -0.0,    0.0,    0.2,    0.0,    0.0,    0.0,   -0.3,   -0.2,    0.1,    0.1,    0.1,   -0.1,   -0.0,   -0.1,  999.0,   -0.1,   -0.3,   -0.1,  999.0,  999.0,  999.0,  999.0,  999.0,  999.0,  999.0,  999.0,  999.0,  999.0,  999.0,  999.0
2016/03/23 05:20,  999.0,   -0.1,    0.1,   -0.0,   -0.2,    0.2,    0.5,    0.5,    0.5,    1.0,    1.1,    1.0,    0.6,    1.0,    0.6,    0.8,    0.8,    0.4,    0.4,    0.2,    0.0,  999.0,    0.4,    0.2,   -0.1,   -0.2,   -0.0,   -0.1,   -0.2,    0.2,   -0.2,    0.0,    0.1,   -0.1,   -0.2,   -0.2,   -0.1,   -0.1,   -0.1,    0.2,   -0.4,   -0.3,   -0.1,    0.1,    0.3,   -0.2,   -0.1,  999.0,  999.0,    0.1,    0.2,    0.1,  999.0,    0.0,   -0.0,    0.1,   -0.1,   -0.0,    0.2,  999.0,   -0.2,    0.1,    0.0,   -0.1,    0.0,  999.0,   -0.1,    0.2,  999.0,  999.0,  999.0,  999.0,  999.0,  999.0,  999.0,  999.0,  999.0,  999.0,  999.0,  999.0
2016/03/23 05:30,  999.0,    0.0,   -0.1,   -0.0,    0.2,   -0.2,   -0.1,   -0.1,   -0.4,    0.3,    0.9,    0.6,    0.5,    0.7,    0.4,    0.3,    0.1,    0.1,    0.1,    0.1,   -0.0,   -0.2,   -0.1,   -0.1,   -0.1,    0.0,   -0.1,    0.0,   -0.1,    0.2,    0.1,    0.1,   -0.0,   -0.1,   -0.3,    0.4,    0.1,   -0.0,    0.1,   -0.1,   -0.3,   -0.4,   -0.1,   -0.1,   -0.2,  999.0,   -0.6,  999.0,   -0.1,   -0.2,   -0.1,   -0.2,    0.1,    0.2,   -0.2,    0.1,    0.0,    0.1,   -0.1,    0.2,    0.1,    0.2,    0.3,   -0.3,   -0.2,   -0.2,   -0.2,  999.0,   -0.1,  999.0,  999.0,  999.0,   -0.2,  999.0,  999.0,  999.0,  999.0,  999.0,  999.0,  999.0
2016/03/23 05:40,  999.0,   -0.0,    0.1,   -0.2,   -0.4,   -0.2,    0.0,    0.5,    0.2,    0.1,    0.4,    0.5,    0.6,    0.4,    0.3,    0.2,    0.3,    0.2,   -0.0,    0.1,   -0.1,   -0.1,   -0.2,   -0.5,   -0.4,    0.0,   -0.1,   -0.1,   -0.1,    0.1,    0.0,   -0.0,   -0.1,  999.0,   -0.0,   -0.2,   -0.2,  999.0,   -0.2,    0.1,   -0.3,  999.0,   -0.4,   -0.3,  999.0,   -0.2,    0.0,    0.2,   -0.0,    0.1,   -0.0,   -0.2,    0.2,   -0.5,   -0.1,   -0.2,    0.4,    0.0,   -0.2,   -0.1,    0.0,   -0.1,  999.0,  999.0,    0.1,   -0.1,    0.2,    0.4,  999.0,  999.0,  999.0,  999.0,    0.2,  999.0,  999.0,  999.0,  999.0,  999.0,  999.0,  999.0
2016/03/23 05:50,  999.0,    0.1,    0.2,   -0.0,    0.7,    0.1,   -0.2,    0.1,    0.3,    0.7,    0.6,    0.5,    0.8,    0.8,    0.5,    0.6,    0.4,    0.4,    0.3,    0.3,    0.1,    0.3,    0.1,    0.1,    0.1,    0.0,   -0.1,   -0.0,    0.1,    0.1,   -0.0,   -0.2,    0.0,  999.0,    0.4,    0.1,    0.1,    0.2,   -0.1,    0.1,   -0.5,   -0.3,   -0.0,    0.1,  999.0,    0.1,   -0.1,   -0.3,   -0.3,   -0.1,   -0.0,   -0.0,   -0.1,   -0.2,    0.5,   -0.1,   -0.3,   -0.4,   -0.1,   -0.3,  999.0,   -0.2,  999.0,   -0.1,  999.0,   -0.1,  999.0,   -0.4,  999.0,  999.0,  999.0,  999.0,  999.0,   -0.1,  999.0,  999.0,  999.0,  999.0,  999.0,  999.0
2016/03/23 06:00,  999.0,  999.0,    0.1,    0.1,    0.2,  999.0,   -0.1,    0.2,    0.4,    0.7,    1.1,    0.4,    0.4,    0.5,    0.5,    0.6,    0.3,    0.3,    0.3,    0.1,    0.1,    0.2,    0.3,    0.2,   -0.1,    0.1,    0.1,   -0.1,    0.1,    0.1,    0.1,   -0.1,   -0.1,   -0.2,   -0.3,   -0.5,   -0.6,    0.1,    0.2,   -0.0,    0.0,   -0.3,    0.0,   -0.0,   -0.1,   -0.0,    0.3,  999.0,  999.0,    0.1,   -0.1,  999.0,   -0.2,    0.3,   -0.0,    0.1,   -0.1,    0.3,    0.0,    0.3,    0.1,   -0.2,    0.1,    0.2,    0.2,  999.0,   -0.1,   -0.0,    0.5,  999.0,  999.0,  999.0,  999.0,  999.0,  999.0,  999.0,  999.0,  999.0,  999.0,  999.0
2016/03/23 06:10,  999.0,   -0.0,   -0.1,   -0.1,    0.0,   -0.2,    0.1,    0.1,    0.0,    0.3,    0.4,    0.7,    0.5,    0.5,    0.4,    0.3,    0.2,    0.2,    0.2,    0.2,    0.2,    0.3,    0.9,    0.4,    0.3,    0.1,    0.0,    0.1,    0.0,   -0.0,   -0.1,    0.0,    0.0,   -0.2,    0.2,   -0.1,    0.1,    0.1,  999.0,   -0.3,  999.0,   -0.5,   -0.4,    0.0,   -0.2,   -0.1,   -0.1,  999.0,   -0.2,  999.0,    0.2,  999.0,   -0.0,    0.5,    0.2,    0.3,    0.3,    0.1,   -0.1,   -0.1,   -0.1,    0.1,  999.0,    0.3,    0.0,   -0.4,   -0.4,    0.1,  999.0,  999.0,  999.0,  999.0,    0.1,   -0.2,  999.0,  999.0,  999.0,  999.0,  999.0,  999.0
2016/03/23 06:20,  999.0,   -0.0,   -0.1,   -0.0,    0.1,   -0.3,    0.0,    0.2,    0.3,    0.6,    0.6,    0.6,    1.0,    1.2,    0.8,    0.7,    0.5,    0.4,    0.2,    0.1,    0.2,    0.4,    1.1,   -0.1,   -0.0,   -0.0,   -0.0,    0.2,    0.1,    0.0,    0.0,    0.1,   -0.1,   -0.1,   -0.0,   -0.0,  999.0,   -0.2,  999.0,    0.4,   -0.7,  999.0,  999.0,   -0.1,    0.0,  999.0,   -0.2,  999.0,   -0.2,   -0.2,   -0.0,  999.0,    0.1,    0.1,    0.0,   -0.1,   -0.3,   -0.1,    0.8,    0.0,   -0.3,    0.2,  999.0,  999.0,   -0.2,    0.1,    0.0,    0.2,  999.0,  999.0,  999.0,  999.0,  999.0,  999.0,  999.0,  999.0,  999.0,  999.0,  999.0,  999.0
2016/03/23 06:30,  999.0,   -0.1,   -0.1,   -0.0,   -0.1,   -0.2,   -0.7,   -0.0,   -0.1,   -0.1,    0.7,    0.6,    0.8,    1.2,    0.7,    0.8,    0.3,    0.4,    0.4,    0.2,    0.2,    0.4,    0.3,    0.3,    0.3,   -0.0,    0.2,   -0.2,   -0.2,   -0.1,    0.1,    0.2,    0.3,    0.1,  999.0,  999.0,    0.1,    0.0,  999.0,    0.0,   -0.3,  999.0,    0.1,   -0.0,    0.1,  999.0,  999.0,  999.0,  999.0,   -0.2,   -0.1,  999.0,   -0.1,   -0.0,   -0.3,    0.0,    0.0,    0.0,   -0.1,   -0.0,    0.2,    0.1,  999.0,   -0.0,    0.1,   -0.1,    0.3,    0.1,    0.3,  999.0,  999.0,  999.0,    0.1,  999.0,  999.0,  999.0,  999.0,  999.0,  999.0,  999.0
2016/03/23 06:40,  999.0,  999.0,   -0.4,   -0.1,   -0.1,   -0.0,   -0.1,   -0.1,   -0.1,    0.4,    0.8,    0.8,    0.6,    0.3,    0.3,    0.4,    0.2,    0.2,    0.2,    0.1,    0.1,    0.2,    0.2,    0.2,    0.2,   -0.0,   -0.1,    0.1,   -0.0,   -0.1,    0.3,    0.1,    0.1,    0.1,  999.0,   -0.2,   -0.2,   -0.1,   -0.1,   -0.1,  999.0,   -0.5,   -0.1,   -0.3,   -0.1,   -0.0,   -0.0,  999.0,    0.7,    0.2,   -0.0,  999.0,   -0.0,   -0.1,   -0.0,   -0.1,    0.7,    0.1,    0.0,   -0.4,   -0.3,   -0.1,  999.0,    0.2,   -0.2,    0.2,   -0.0,   -0.0,   -0.2,  999.0,  999.0,  999.0,   -0.0,   -0.2,  999.0,  999.0,  999.0,  999.0,  999.0,  999.0
2016/03/23 06:50,  999.0,  999.0,   -0.1,   -0.1,    0.2,    0.4,    0.2,    0.3,    0.4,    0.4,    0.9,    0.6,    0.4,    0.5,    0.2,    0.2,    0.3,    0.2,    0.1,    0.2,    0.4,    0.6,    0.8,    0.9,    0.2,    0.1,    0.1,    0.1,    0.1,    0.1,    0.0,   -0.1,   -0.0,    0.1,  999.0,    0.5,  999.0,   -0.0,  999.0,   -0.2,   -0.3,   -0.2,    0.1,    0.0,  999.0,    0.3,    0.2,    0.0,  999.0,    0.1,    0.2,   -0.1,    0.1,   -0.0,    0.2,    0.3,    0.2,    0.1,  999.0,  999.0,   -0.2,   -0.4,   -0.2,  999.0,    0.1,    0.0,   -0.4,   -0.2,    0.4,    0.0,   -0.1,    0.0,  999.0,   -0.0,  999.0,  999.0,  999.0,  999.0,  999.0,  999.0
2016/03/23 07:00,  999.0,  999.0,   -0.1,   -0.0,    0.4,    0.1,    0.3,   -0.4,    0.0,    0.3,    0.4,    0.0,    0.5,    0.2,    0.2,    0.3,    0.3,    0.4,    0.2,    0.4,    0.5,    1.0,    1.4,    1.1,    0.2,    0.3,    0.3,    0.1,    0.0,   -0.0,    0.5,    0.2,   -0.2,    0.1,   -0.3,   -0.2,    0.2,    0.3,  999.0,    0.1,   -0.4,   -0.5,   -0.1,   -0.2,  999.0,   -0.2,   -0.1,   -0.0,   -0.3,  999.0,   -0.3,   -0.1,    0.1,    0.2,  999.0,    0.2,    0.1,   -0.1,   -0.1,   -0.1,    0.1,   -0.1,  999.0,    0.1,   -0.1,  999.0,    0.2,    0.1,   -0.1,  999.0,  999.0,  999.0,  999.0,  999.0,  999.0,  999.0,  999.0,  999.0,  999.0,  999.0
2016/03/23 07:10,  999.0,    0.0,   -0.3,   -0.1,    0.1,    0.0,   -0.0,    0.0,    0.0,    0.1,    0.3,    0.3,    0.3,    0.4,    0.4,    0.3,    0.3,    0.4,    0.2,    0.2,    0.4,    0.8,    2.0,    0.6,    0.5,    0.3,    0.1,    0.0,   -0.1,    0.0,    0.0,   -0.3,    0.2,    0.2,    0.3,    0.3,   -0.1,   -0.3,   -0.1,  999.0,   -0.2,  999.0,   -0.3,    0.1,   -0.2,   -0.4,   -0.0,    0.1,    0.2,   -0.1,   -0.1,    0.2,   -0.3,    0.1,   -0.2,   -0.3,   -0.1,   -0.0,    0.3,  999.0,  999.0,   -0.0,    0.1,  999.0,  999.0,    0.2,  999.0,    0.2,  999.0,  999.0,  999.0,  999.0,  999.0,  999.0,  999.0,  999.0,  999.0,  999.0,  999.0,  999.0
2016/03/23 07:20,  999.0,    0.1,    0.1,    0.1,    0.1,    0.1,   -0.1,    0.1,    0.6,    0.6,    0.7,    0.5,    0.6,    0.8,    0.7,    0.7,    0.3,    0.4,    0.4,    0.4,    0.5,    1.1,    0.9,    0.6,    0.7,    0.3,    0.4,   -0.1,    0.3,    0.1,    0.0,    0.3,    0.2,  999.0,   -0.4,    0.2,   -0.3,   -0.0,  999.0,    0.3,   -0.4,  999.0,    0.0,    0.2,    0.0,  999.0,    0.2,   -0.1,   -0.1,    0.2,  999.0,  999.0,   -0.0,  999.0,   -0.1,   -0.1,    0.4,   -0.1,   -0.0,    0.1,    0.2,   -0.0,   -0.1,    0.2,  999.0,    0.3,  999.0,  999.0,  999.0,  999.0,  999.0,  999.0,  999.0,  999.0,  999.0,  999.0,  999.0,  999.0,  999.0,  999.0
2016/03/23 07:30,  999.0,  999.0,    0.9,    0.1,   -0.1,    0.1,    0.3,    0.2,    0.1,   -0.0,   -0.1,    0.5,    0.8,    0.8,    0.7,    0.9,    1.2,    0.6,    0.5,    0.5,    0.4,    0.5,    2.0,    0.7,    0.3,    0.4,    0.2,   -0.2,    0.4,    0.0,    0.1,    0.1,    0.4,   -0.1,   -0.4,  999.0,  999.0,  999.0,  999.0,   -0.1,    0.1,  999.0,    0.1,   -0.1,    0.1,   -0.1,   -0.2,    0.2,  999.0,    0.1,    0.1,  999.0,  999.0,    0.0,    0.2,   -0.0,    0.4,    0.2,  999.0,    0.3,   -0.4,   -0.2,   -0.2,  999.0,   -0.1,   -0.2,  999.0,  999.0,  999.0,  999.0,  999.0,  999.0,  999.0,  999.0,  999.0,  999.0,  999.0,  999.0,  999.0,  999.0
2016/03/23 07:40,  999.0,   -0.1,   -0.4,    0.1,   -0.1,   -0.0,    0.1,    0.4,    0.5,    0.2,    0.8,    0.3,    0.4,    1.7,    0.8,    0.3,    0.7,    1.1,    1.0,    0.7,    0.3,   -0.1,   -0.1,    0.2,    0.4,   -0.1,   -0.4,    0.1,   -0.2,   -0.0,   -0.1,   -0.1,    0.1,  999.0,    0.2,  999.0,   -0.1,  999.0,  999.0,    0.3,    0.5,    0.0,  999.0,  999.0,    0.3,   -0.1,  999.0,  999.0,   -0.0,  999.0,  999.0,  999.0,    0.2,   -0.2,   -0.1,    0.2,    0.0,    0.2,   -0.5,   -0.1,  999.0,  999.0,    0.0,  999.0,  999.0,  999.0,  999.0,  999.0,  999.0,  999.0,  999.0,  999.0,  999.0,  999.0,  999.0,  999.0,  999.0,  999.0,  999.0,  999.0
2016/03/23 07:50,  999.0,    0.4,   -0.1,   -0.2,    0.5,    0.6,    0.4,    0.1,    0.7,    1.5,    2.0,    3.5,    2.7,    2.0,    4.0,    2.7,    4.5,  999.0,  999.0,  999.0,  999.0,  999.0,  999.0,  999.0,  999.0,  999.0,  999.0,   -0.2,   -0.4,    0.1,    0.7,    0.4,  999.0,    0.3,  999.0,  999.0,  999.0,  999.0,    0.3,    0.1,    0.2,    0.0,   -0.1,  999.0,  999.0,    0.2,    0.3,   -0.2,  999.0,   -0.1,   -0.1,  999.0,   -0.1,  999.0,  999.0,    0.1,   -0.2,   -0.1,    0.1,  999.0,   -0.1,    0.1,   -0.3,    0.1,   -0.2,   -0.1,   -0.0,  999.0,  999.0,  999.0,  999.0,  999.0,  999.0,  999.0,  999.0,  999.0,  999.0,  999.0,  999.0,  999.0
2016/03/23 08:00,  999.0,    0.2,    0.0,    0.2,    0.1,   -0.2,   -0.9,    0.1,   -0.1,    1.8,    1.2,    1.6,    0.5,    0.4,    1.0,    2.8,    3.5,    0.1,  999.0,  999.0,  999.0,  999.0,  999.0,  999.0,  999.0,    4.2,    2.3,   -0.1,  999.0,    0.2,   -0.1,    0.1,    0.5,  999.0,   -0.1,   -0.1,   -0.1,  999.0,  999.0,    0.2,  999.0,    0.2,   -0.0,    0.5,    0.4,    0.1,   -0.1,   -0.1,    0.1,  999.0,    0.2,   -0.1,   -0.0,   -0.0,   -0.2,    0.0,    0.0,    0.0,   -0.1,   -0.1,    0.2,    0.1,    0.0,    0.3,   -0.0,    0.3,  999.0,    0.1,    0.1,  999.0,  999.0,  999.0,  999.0,  999.0,  999.0,  999.0,  999.0,  999.0,  999.0,  999.0
2016/03/23 08:10,  999.0,    0.2,   -0.0,    0.2,    0.2,   -0.1,   -0.6,   -0.3,   -0.2,    0.5,    0.2,   -1.1,   -0.6,   -0.8,   -0.6,   -0.2,    0.4,    0.7,  999.0,  999.0,  999.0,  999.0,  999.0,  999.0,   -0.5,  999.0,  999.0,   -1.0,  999.0,    0.2,  999.0,   -0.2,   -0.1,  999.0,  999.0,  999.0,  999.0,  999.0,  999.0,  999.0,  999.0,  999.0,    0.3,  999.0,  999.0,  999.0,    0.1,  999.0,  999.0,   -0.2,    0.3,   -0.1,    0.0,   -0.0,    0.0,   -0.0,    0.1,    0.3,    0.0,   -0.2,    0.0,   -0.1,  999.0,    0.2,    0.0,    0.2,    0.1,    0.2,   -0.0,  999.0,  999.0,   -0.3,  999.0,  999.0,  999.0,  999.0,  999.0,  999.0,  999.0,  999.0
2016/03/23 08:20,  999.0,    0.1,    0.3,    0.0,    0.3,    0.4,   -0.4,   -0.1,   -0.4,    0.4,    1.0,    1.2,    1.4,    3.0,    0.4,   -0.1,    1.5,    0.8,  999.0,  999.0,  999.0,   -2.4,   -1.5,   -0.2,   -0.2,  999.0,   -0.2,  999.0,    0.0,    0.1,    0.1,   -0.0,   -0.2,  999.0,    0.1,    0.5,    0.4,  999.0,   -0.0,   -0.4,   -0.2,  999.0,   -0.3,   -0.0,    0.3,    0.6,   -0.1,   -0.6,    0.3,   -0.3,   -0.1,   -0.1,    0.2,   -0.1,   -0.3,   -0.0,   -0.0,   -0.0,   -0.0,  999.0,    0.1,  999.0,   -0.0,    0.1,    0.1,   -0.1,    0.1,    0.0,  999.0,   -0.1,    0.0,   -0.0,  999.0,  999.0,  999.0,  999.0,  999.0,  999.0,  999.0,  999.0
2016/03/23 08:30,  999.0,    0.2,    0.0,    0.2,    0.2,    0.0,   -0.0,    0.2,    0.1,    0.2,    0.8,    0.2,    0.8,    0.6,    0.2,    0.4,    1.7,    1.4,    2.2,    1.4,  999.0,  999.0,  999.0,  999.0,  999.0,  999.0,    1.2,    0.2,    0.0,   -0.2,    0.0,    0.0,   -0.1,    0.4,    0.1,   -0.0,  999.0,  999.0,   -0.0,    0.3,   -0.1,    0.2,   -0.0,  999.0,   -0.3,    0.1,   -0.3,   -0.1,    0.1,    0.1,    0.4,  999.0,  999.0,   -0.0,   -0.0,   -0.0,   -0.2,   -0.2,    0.1,  999.0,    0.6,    0.1,    0.0,    0.2,    0.2,   -0.1,  999.0,   -0.1,   -0.0,   -0.1,  999.0,  999.0,  999.0,  999.0,  999.0,  999.0,  999.0,  999.0,  999.0,  999.0
2016/03/23 08:40,  999.0,    0.3,   -0.1,   -0.2,   -0.3,   -0.1,   -0.3,   -0.6,   -0.2,    0.1,   -0.2,   -0.1,    0.1,    0.2,    0.2,    0.2,    0.3,    0.6,    0.9,    1.7,    1.2,    0.8,   -0.0,   -0.0,   -0.3,   -0.0,    0.5,    0.4,   -0.0,    0.2,    0.0,   -0.2,    0.1,  999.0,  999.0,    0.6,   -0.3,  999.0,   -0.1,    0.2,   -0.1,    0.1,    0.9,   -0.1,    0.1,   -0.1,    0.0,  999.0,  999.0,  999.0,   -0.2,    0.1,    0.2,   -0.1,   -0.1,   -0.1,    0.2,   -0.5,  999.0,  999.0,   -0.1,   -0.1,  999.0,   -0.3,   -0.1,    0.3,    0.5,    0.5,   -0.2,    0.2,  999.0,  999.0,    0.6,  999.0,  999.0,  999.0,  999.0,  999.0,  999.0,  999.0
2016/03/23 08:50,  999.0,   -0.1,    0.2,    0.3,   -0.1,    0.0,    0.1,    0.0,   -0.0,   -0.1,   -0.0,    0.3,    0.2,    0.2,    0.1,    0.1,   -0.2,   -0.5,   -0.3,   -0.2,   -0.5,    0.1,   -0.5,   -0.4,   -0.2,   -0.4,   -0.6,   -0.1,    0.1,   -0.0,   -0.1,   -0.2,   -0.2,    0.5,   -0.1,  999.0,   -0.1,  999.0,    0.0,    0.1,    0.0,   -0.1,   -0.4,    0.3,    0.1,   -0.0,   -0.1,  999.0,   -0.5,   -0.1,   -0.0,    0.0,   -0.0,    0.1,    0.1,    0.1,    0.3,    0.3,   -0.0,  999.0,   -0.0,  999.0,   -0.0,    0.1,   -0.0,    0.1,    0.4,  999.0,    0.2,    0.1,  999.0,  999.0,   -0.0,  999.0,  999.0,  999.0,  999.0,  999.0,  999.0,  999.0
2016/03/23 09:00,  999.0,   -0.2,   -0.2,    0.0,   -0.1,    0.0,    0.1,   -0.1,   -0.0,   -0.1,   -0.3,   -0.6,   -0.3,   -0.2,   -0.0,   -0.1,   -0.3,   -0.4,    0.0,   -0.0,    0.2,    0.1,   -0.6,   -0.2,   -0.5,   -0.5,   -0.5,   -0.2,   -0.1,    0.2,   -0.0,   -0.1,   -0.2,   -0.2,  999.0,    0.2,  999.0,    0.2,   -0.1,   -0.1,   -0.2,  999.0,    0.3,   -0.3,   -0.2,  999.0,    0.4,   -0.0,   -0.3,   -0.0,    0.0,   -0.1,   -0.2,    0.1,   -0.0,    0.1,  999.0,   -0.0,  999.0,  999.0,   -0.7,   -0.6,   -0.6,   -0.6,   -0.3,  999.0,  999.0,    0.3,    0.2,    0.2,  999.0,  999.0,  999.0,  999.0,  999.0,  999.0,  999.0,  999.0,  999.0,  999.0
2016/03/23 09:10,  999.0,    0.0,   -0.3,   -0.1,   -0.0,    0.0,    0.1,   -0.1,   -0.2,   -0.1,    0.0,    0.1,    0.0,    0.0,    0.2,    0.1,    0.1,    0.1,    0.2,    0.3,    0.1,    0.0,   -0.4,    0.0,   -0.9,   -0.3,   -0.2,   -0.2,   -0.0,   -0.2,   -0.2,    0.2,  999.0,   -0.0,   -0.3,  999.0,  999.0,    0.2,  999.0,    0.1,   -0.3,   -0.2,  999.0,   -0.1,    0.1,    0.1,   -0.0,  999.0,  999.0,  999.0,   -0.1,   -0.1,   -0.0,   -0.5,    0.0,   -0.1,   -0.1,  999.0,    0.1,   -0.3,   -0.4,    0.1,    0.1,    0.1,    0.4,   -0.2,  999.0,    0.2,    0.2,   -0.2,  999.0,  999.0,  999.0,  999.0,  999.0,  999.0,  999.0,  999.0,  999.0,  999.0
2016/03/23 09:20,  999.0,    0.3,   -0.1,   -0.0,    0.0,   -0.0,   -0.0,   -0.1,    0.2,    0.2,    0.3,    0.2,    0.1,    0.3,    0.2,    0.2,    0.4,    0.5,    0.3,    0.3,    0.1,    0.4,    0.0,   -0.5,   -0.2,    0.1,    0.1,    0.1,    0.1,    0.1,   -0.0,   -0.2,    0.4,    0.3,    0.0,   -0.1,  999.0,   -0.4,   -0.7,  999.0,   -1.2,   -0.3,    0.0,    0.2,   -0.1,  999.0,  999.0,    0.4,    0.3,    0.2,   -0.1,    0.0,   -0.1,   -0.1,   -0.1,    0.0,    0.1,   -0.3,   -0.2,   -0.1,    0.1,    0.1,    0.0,   -0.3,    0.3,    0.0,    0.1,    0.0,  999.0,  999.0,    0.0,  999.0,   -0.1,  999.0,  999.0,  999.0,  999.0,  999.0,  999.0,  999.0
2016/03/23 09:30,  999.0,   -0.1,   -0.2,    0.1,    0.0,   -0.0,    0.0,   -0.1,    0.0,    0.2,    0.3,    0.2,    0.4,    0.5,    0.3,    0.4,    0.2,    0.3,    0.1,    0.1,   -0.0,   -0.2,    0.2,   -0.1,   -0.5,   -0.2,   -0.1,   -0.1,   -0.1,    0.0,    0.1,    0.1,    0.0,   -0.1,   -0.2,    0.1,  999.0,    0.2,  999.0,  999.0,   -0.2,  999.0,  999.0,    0.2,    0.2,    0.2,    0.4,    0.1,  999.0,   -0.1,   -0.0,    0.2,   -0.0,   -0.0,    0.1,   -0.1,   -0.1,   -0.0,   -0.0,   -0.3,   -0.1,   -0.1,    0.1,   -0.0,  999.0,   -0.0,    0.0,    0.2,   -0.1,  999.0,  999.0,   -0.1,  999.0,  999.0,  999.0,  999.0,  999.0,  999.0,  999.0,  999.0
2016/03/23 09:40,  999.0,   -0.0,   -0.0,   -0.2,   -0.1,   -0.4,    0.1,    0.1,    0.1,   -0.1,    0.0,   -0.2,   -0.1,    0.2,    0.1,    0.3,    0.2,   -0.0,    0.1,   -0.0,   -0.3,   -0.5,  999.0,   -1.0,    0.2,    0.2,   -0.2,   -0.2,   -0.3,   -0.1,   -0.1,   -0.1,   -0.1,   -0.0,    0.1,    0.2,  999.0,  999.0,   -0.2,   -0.7,   -1.2,   -1.1,   -0.0,    0.0,    0.0,   -0.2,   -0.2,   -0.3,   -0.1,  999.0,    0.1,   -0.2,   -0.2,    0.1,   -0.2,   -0.2,   -0.0,   -0.0,   -0.3,    0.1,    0.1,    0.0,   -0.1,  999.0,  999.0,    0.1,    0.1,   -0.0,   -0.2,  999.0,  999.0,    0.5,  999.0,  999.0,  999.0,  999.0,  999.0,  999.0,  999.0,  999.0
2016/03/23 09:50,  999.0,    0.2,    0.2,    0.1,    0.2,    0.1,   -0.1,   -0.0,   -0.0,    0.3,    0.2,    0.1,    0.1,    0.1,    0.1,    0.2,    0.3,    0.1,    0.8,    0.1,    0.7,    0.5,    0.4,   -0.7,   -0.3,   -0.1,   -0.2,   -0.3,   -0.2,   -0.2,   -0.0,    0.1,   -0.2,   -0.1,    0.5,   -0.5,   -0.6,   -0.1,   -0.8,  999.0,   -0.8,   -0.4,    0.0,   -0.3,   -0.1,    0.1,    0.1,    0.0,   -0.1,   -0.2,   -0.0,    0.1,   -0.2,   -0.3,   -0.0,   -0.2,    0.0,    0.0,    0.4,   -0.1,    0.1,    0.1,   -0.1,  999.0,    0.1,   -0.1,   -0.3,   -0.0,  999.0,  999.0,   -0.1,    0.3,  999.0,    0.2,  999.0,  999.0,  999.0,  999.0,  999.0,  999.0
2016/03/23 10:00,  999.0,    0.1,   -0.1,   -0.1,   -0.0,   -0.1,   -0.0,   -0.1,   -0.0,    0.3,    0.2,    0.2,    0.3,    0.4,    0.2,    0.2,    0.1,    0.1,    0.2,    0.3,    0.1,    0.3,   -0.2,   -0.0,   -0.1,   -0.1,   -0.3,   -0.0,   -0.1,   -0.1,   -0.2,   -0.1,  999.0,   -0.0,   -0.1,    0.0,   -0.2,   -0.6,  999.0,   -0.5,    0.2,   -0.3,   -0.1,   -0.3,   -0.6,   -0.4,    0.1,    0.2,   -0.0,    0.1,    0.1,   -0.2,    0.0,   -0.1,   -0.0,   -0.1,    0.0,    0.3,   -0.2,   -0.1,   -0.1,   -0.1,    0.1,   -0.2,   -0.2,   -0.3,   -0.2,   -0.1,  999.0,   -0.2,    0.1,   -0.0,    0.2,  999.0,   -0.0,  999.0,  999.0,  999.0,  999.0,  999.0
2016/03/23 10:10,  999.0,   -0.4,    0.1,   -0.1,   -0.3,   -0.0,   -0.3,   -0.1,    0.3,   -0.1,    0.2,    0.3,    0.9,    1.2,    0.2,    0.4,   -0.6,    0.1,   -0.6,    0.3,  999.0,    0.9,    0.2,    0.3,   -0.1,   -0.3,   -0.1,   -0.0,   -0.2,   -0.5,   -0.2,   -0.0,    0.1,  999.0,    0.1,    0.2,  999.0,   -0.3,   -0.4,   -0.1,   -0.2,   -0.1,   -0.1,   -0.0,   -0.2,    0.1,    0.5,  999.0,   -0.4,    0.2,    0.1,    0.2,    0.2,    0.1,   -0.0,   -0.1,   -0.2,   -0.2,   -0.1,    0.1,    0.2,   -0.0,    0.0,   -0.1,   -0.4,   -0.2,    0.2,   -0.0,    0.1,  999.0,   -0.0,    0.2,  999.0,    0.1,   -0.1,  999.0,  999.0,  999.0,  999.0,  999.0
2016/03/23 10:20,  999.0,    0.3,   -0.0,   -0.1,    0.1,    0.1,   -0.0,   -0.2,    0.2,    0.9,    0.7,    0.7,    0.4,    1.2,    0.5,   -0.1,   -0.9,   -1.1,   -0.7,   -0.7,   -2.3,   -1.6,   -1.2,   -0.8,   -0.4,   -0.2,    0.1,   -0.1,   -0.2,   -0.8,   -0.0,    0.2,   -0.0,   -0.0,   -0.1,    0.1,    0.0,   -0.1,   -0.0,   -0.1,   -1.3,   -0.6,  999.0,   -0.2,   -0.1,   -0.1,   -0.3,   -0.9,   -0.3,    0.4,   -0.2,    0.0,    0.1,    0.1,    0.0,   -0.0,   -0.1,   -0.0,    0.0,   -0.4,   -0.2,   -0.1,    0.2,    0.2,    0.1,    0.3,   -0.2,    0.0,    0.4,  999.0,  999.0,    0.2,    0.4,  999.0,    0.0,  999.0,  999.0,  999.0,  999.0,  999.0
2016/03/23 10:30,  999.0,   -0.4,   -0.5,    0.4,    0.2,    0.1,   -0.0,   -0.3,   -0.2,   -0.0,    0.8,    0.3,   -0.2,    0.0,    0.3,    0.2,    0.0,    0.0,   -0.3,   -0.2,  999.0,  999.0,  999.0,    0.2,   -0.2,   -0.0,   -0.2,   -0.1,   -0.2,   -1.2,    0.2,   -0.1,   -0.0,    0.1,  999.0,  999.0,  999.0,  999.0,  999.0,  999.0,   -0.1,    0.0,    0.2,    0.1,   -0.1,   -0.1,   -0.2,   -0.0,   -0.1,    0.2,    0.0,    0.3,   -0.0,   -0.0,    0.6,   -0.0,   -0.0,   -0.0,    0.1,   -0.0,   -0.0,    0.0,    0.0,    0.1,    0.2,    0.1,   -0.0,    0.0,  999.0,  999.0,   -0.2,    0.1,   -0.5,  999.0,  999.0,  999.0,  999.0,  999.0,  999.0,  999.0
2016/03/23 10:40,  999.0,   -1.1,   -0.2,    0.1,    0.3,    0.0,   -0.2,   -0.3,   -0.4,   -0.1,    0.8,    0.8,    1.1,    0.4,    0.9,    0.2,   -0.0,   -0.7,   -1.0,   -1.2,   -1.9,   -3.3,   -3.6,   -2.6,   -0.1,    0.0,   -0.0,   -0.0,   -0.3,   -0.7,   -0.5,   -0.1,    0.1,    0.0,    0.5,  999.0,    0.1,    0.1,  999.0,   -0.1,   -0.6,  999.0,   -0.4,   -0.2,   -0.3,   -0.2,   -0.2,   -0.2,  999.0,   -0.2,    0.3,    0.1,  999.0,  999.0,    0.0,   -0.0,    0.1,    0.2,    0.0,    0.0,   -0.1,   -0.1,   -0.1,   -0.0,   -0.0,   -0.1,    0.1,    0.3,  999.0,    0.6,   -0.0,   -0.2,   -0.3,  999.0,  999.0,  999.0,  999.0,  999.0,  999.0,  999.0
2016/03/23 10:50,  999.0,    0.4,    0.5,    0.2,    0.2,   -0.5,   -0.7,    0.0,    0.2,    0.9,    1.1,    0.4,    0.1,    0.5,    0.4,    0.3,    0.9,    0.2,   -0.6,   -0.9,   -0.7,   -0.3,  999.0,   -0.8,   -0.2,   -0.1,   -0.6,   -0.3,    0.2,   -0.2,   -0.8,   -1.1,   -0.3,    0.3,   -0.1,  999.0,   -1.0,  999.0,  999.0,   -0.3,   -1.1,   -1.1,  999.0,   -0.4,   -0.2,   -0.1,   -0.0,   -0.0,   -0.0,  999.0,  999.0,    0.1,    0.1,    0.1,    0.1,   -0.1,   -0.2,   -0.0,   -0.1,   -0.1,   -0.1,    0.2,    0.4,    0.1,    0.1,    0.1,    0.0,    0.1,    0.0,  999.0,  999.0,    0.2,    0.2,   -0.1,    0.2,  999.0,  999.0,  999.0,  999.0,  999.0
2016/03/23 11:00,  999.0,   -0.3,   -0.4,   -0.6,    0.0,   -0.0,   -0.1,    0.3,    0.2,    0.1,    0.1,    0.3,    0.1,    0.6,    0.2,    0.0,    0.1,    0.2,    0.4,   -0.5,   -0.7,   -2.1,   -2.5,   -2.1,   -1.1,   -0.0,   -0.3,   -0.1,   -0.4,   -0.1,   -0.3,   -0.8,   -0.3,   -0.1,  999.0,    0.1,  999.0,  999.0,   -1.2,   -0.7,   -0.6,   -0.5,    0.1,   -0.1,   -0.0,    0.3,    0.2,   -0.4,    0.1,   -0.1,    0.1,    0.1,   -0.0,   -0.1,   -0.1,    0.1,   -0.0,   -0.1,   -0.1,    0.0,    0.3,    0.2,    0.1,   -0.1,    0.0,    0.1,    0.4,  999.0,  999.0,    0.1,  999.0,    0.2,   -0.0,   -0.1,  999.0,  999.0,  999.0,  999.0,  999.0,  999.0
2016/03/23 11:10,  999.0,   -0.1,  999.0,   -0.1,   -0.4,   -0.0,   -0.2,   -0.2,   -0.9,   -0.1,    0.1,    0.1,    0.3,    0.3,    0.1,    0.1,   -0.1,   -0.1,   -0.3,   -0.6,   -0.6,   -0.4,   -1.8,   -2.0,   -1.6,   -0.2,    0.0,   -0.1,   -0.2,   -0.1,   -0.7,   -1.8,   -0.5,   -0.2,    0.2,    0.3,   -0.5,   -0.1,  999.0,   -0.3,   -1.5,   -1.1,    0.1,   -0.1,    0.1,    0.2,   -0.1,    0.2,    0.1,    0.2,   -0.2,   -0.3,   -0.3,    0.1,    0.1,    0.2,    0.2,    0.1,    0.3,   -0.4,   -0.0,   -0.0,    0.2,    0.0,    0.3,    0.3,    0.1,    0.4,   -0.1,  999.0,   -0.1,    0.0,  999.0,    0.4,   -0.0,  999.0,  999.0,  999.0,  999.0,  999.0
2016/03/23 11:20,  999.0,    0.4,  999.0,    0.1,    0.1,    0.2,   -0.0,   -0.1,    0.0,    0.0,    0.1,    0.1,    0.1,    0.2,    0.2,    0.3,    0.4,    0.1,    0.0,    0.1,   -0.3,   -0.5,   -0.6,   -1.0,   -1.9,   -0.2,   -0.7,   -0.0,   -0.2,   -0.3,   -0.3,   -0.1,   -0.1,   -0.1,   -0.0,  999.0,    0.2,    0.4,    0.1,    0.1,   -0.8,   -0.3,    0.0,    0.0,   -0.2,   -0.1,    0.2,   -0.0,    0.1,    0.3,    0.3,    0.1,    0.0,   -0.1,    0.3,    0.2,    0.0,    0.0,    0.0,   -0.0,    0.0,   -0.1,   -0.1,   -0.4,   -0.2,    0.1,    0.3,    0.4,   -0.0,   -0.1,   -0.0,    0.0,    0.1,  999.0,   -0.1,  999.0,  999.0,  999.0,  999.0,  999.0
2016/03/23 11:30,  999.0,  999.0,    0.2,   -0.0,    0.0,    0.4,    0.1,    0.1,    0.1,    0.2,    0.1,    0.1,    0.1,    0.0,    0.0,   -0.1,   -0.1,    0.1,    0.0,    0.2,    0.1,    0.5,   -0.2,   -0.8,   -1.1,   -0.3,   -0.9,   -0.5,   -0.4,   -0.3,    0.0,   -0.6,   -0.5,    0.0,    0.0,   -0.3,  999.0,    0.3,   -0.1,    0.0,   -1.2,   -1.0,  999.0,   -0.0,   -0.2,   -0.3,   -0.1,   -0.0,   -0.1,    0.1,    0.1,   -0.3,   -0.0,   -0.0,    0.2,    0.1,    0.0,   -0.1,    0.1,   -0.1,    0.2,   -0.1,   -0.0,   -0.0,   -0.1,    0.1,    0.2,   -0.1,   -0.2,    0.0,   -0.2,    0.1,   -0.0,   -0.1,    0.0,  999.0,  999.0,  999.0,  999.0,  999.0
2016/03/23 11:40,  999.0,  999.0,    0.3,    0.3,    0.2,    0.0,    0.0,   -0.0,   -0.0,   -0.1,   -0.0,    0.2,    0.0,    0.1,   -0.1,    0.0,   -0.1,   -0.2,   -0.3,   -0.2,   -0.2,    0.1,   -1.1,   -1.5,   -0.9,   -0.4,   -1.2,   -0.2,   -0.1,   -0.0,   -0.1,    0.1,   -0.3,    0.3,   -0.0,    0.1,  999.0,  999.0,    0.1,   -0.2,   -1.4,   -0.9,    0.3,   -0.1,   -0.2,    0.0,   -0.2,   -0.3,    0.0,   -0.3,   -0.4,  999.0,    0.3,    0.0,   -0.0,   -0.1,    0.3,    0.1,   -0.2,   -0.1,   -0.1,    0.0,    0.1,   -0.0,   -0.1,   -0.0,    0.1,    0.1,   -0.4,    0.3,    0.0,   -0.1,  999.0,    0.4,    0.5,  999.0,  999.0,  999.0,  999.0,  999.0
2016/03/23 11:50,  999.0,    0.4,    0.4,   -0.2,   -0.5,    0.1,    0.6,    0.1,    0.3,    0.6,    0.9,    1.2,    0.6,    0.5,    0.0,   -0.2,   -0.1,   -0.5,   -0.1,    0.1,   -0.3,    0.2,   -0.8,   -0.8,   -1.0,   -1.3,   -0.2,   -0.1,    0.2,    0.0,   -0.2,    0.0,   -0.2,   -0.7,   -0.2,  999.0,   -0.2,  999.0,  999.0,  999.0,   -0.1,  999.0,  999.0,  999.0,  999.0,   -0.2,   -0.2,  999.0,   -0.3,  999.0,    0.1,    0.2,   -0.3,    0.1,    0.1,   -0.1,    0.0,    0.1,    0.2,    0.2,   -0.0,    0.2,   -0.2,   -0.3,   -0.0,  999.0,    0.2,    0.2,   -0.1,   -0.0,   -0.2,   -0.0,  999.0,    0.4,  999.0,  999.0,  999.0,  999.0,  999.0,  999.0
2016/03/23 12:00,  999.0,   -0.1,   -0.2,    0.5,   -0.1,    0.1,   -0.5,   -0.1,    0.0,    0.0,    0.7,    0.7,    0.5,    0.2,    0.4,    0.3,    0.7,    0.7,    1.3,    0.3,    0.3,  999.0,   -0.6,   -0.9,   -1.8,   -2.1,   -2.4,   -0.9,   -0.2,   -0.3,   -0.1,   -0.0,    0.1,    0.5,  999.0,   -0.5,   -0.0,    0.2,    0.1,   -0.1,  999.0,   -0.1,   -0.1,   -0.0,   -0.1,    0.2,    0.0,   -0.2,  999.0,    0.2,   -0.3,  999.0,   -0.2,    0.0,   -0.2,   -0.1,   -0.2,   -0.1,   -0.0,   -0.1,  999.0,   -0.0,   -0.1,    0.0,   -0.0,   -0.1,   -0.2,   -0.4,  999.0,   -0.0,   -0.1,    0.0,   -0.0,   -0.2,    0.1,  999.0,  999.0,  999.0,  999.0,  999.0
2016/03/23 12:10,  999.0,   -0.1,    0.1,   -0.1,   -0.5,   -0.3,   -0.6,   -0.3,    0.1,    0.6,    0.8,    0.3,    0.5,    0.5,    0.1,   -0.1,    0.4,    1.0,    1.1,   -0.1,  999.0,   -1.8,  999.0,  999.0,  999.0,  999.0,  999.0,   -1.4,  999.0,    0.0,  999.0,    0.0,  999.0,    0.1,  999.0,  999.0,   -0.6,  999.0,  999.0,    0.1,  999.0,  999.0,  999.0,  999.0,  999.0,  999.0,  999.0,  999.0,  999.0,  999.0,  999.0,   -0.2,   -0.2,   -0.5,   -0.3,    0.0,    0.2,    0.1,   -0.2,   -0.3,  999.0,   -0.4,   -0.1,  999.0,   -0.0,   -0.5,   -0.1,   -0.0,   -0.2,  999.0,    0.1,   -0.1,   -0.0,   -0.2,    0.1,  999.0,  999.0,  999.0,  999.0,  999.0
2016/03/23 12:20,  999.0,   -0.2,   -0.2,    0.0,   -0.1,    0.0,    0.0,    0.0,   -0.1,   -0.7,   -0.4,   -0.2,   -0.7,   -1.0,   -0.7,    0.0,  999.0,  999.0,  999.0,  999.0,  999.0,  999.0,  999.0,  999.0,  999.0,  999.0,   -1.1,   -0.4,  999.0,   -0.8,   -0.8,  999.0,  999.0,  999.0,  999.0,  999.0,  999.0,    0.0,  999.0,    0.2,  999.0,   -0.8,  999.0,  999.0,   -0.0,  999.0,  999.0,  999.0,    0.2,    0.2,  999.0,   -0.1,   -0.1,    0.1,    0.2,    0.1,    0.2,   -0.3,   -0.3,    0.1,    0.1,    0.1,   -0.0,  999.0,   -0.1,   -0.0,    0.0,    0.2,  999.0,   -0.0,    0.0,   -0.0,   -0.3,    0.0,  999.0,  999.0,  999.0,  999.0,  999.0,  999.0
2016/03/23 12:30,  999.0,    0.0,   -0.4,   -0.1,   -0.1,   -0.0,    0.1,   -0.1,   -0.2,   -0.3,   -0.6,  999.0,    0.2,    0.1,    0.3,    0.5,    0.7,    1.4,    0.9,    0.6,    0.4,    0.2,    0.7,   -0.3,  999.0,  999.0,    1.9,  999.0,  999.0,   -0.6,  999.0,  999.0,  999.0,  999.0,  999.0,  999.0,  999.0,  999.0,  999.0,  999.0,  999.0,   -1.4,  999.0,  999.0,  999.0,   -0.0,    0.1,  999.0,    0.1,  999.0,  999.0,  999.0,   -0.1,   -0.2,   -0.2,    0.1,   -0.2,   -0.3,    0.2,    0.0,   -0.1,    0.3,    0.1,  999.0,   -0.1,  999.0,   -0.1,   -0.0,   -0.1,   -0.0,    0.5,   -0.3,   -0.1,   -0.3,  999.0,  999.0,  999.0,  999.0,  999.0,  999.0
2016/03/23 12:40,  999.0,    0.1,    0.1,    0.0,    0.1,   -0.0,    0.1,    0.1,   -0.0,    0.0,    0.1,    0.1,    0.0,    0.2,    0.8,    0.6,    0.7,    0.7,    0.2,   -0.0,   -0.3,   -0.3,    0.5,    0.2,   -0.0,    0.6,   -0.5,   -0.4,   -0.4,    0.1,   -0.6,   -0.7,  999.0,  999.0,   -0.4,  999.0,  999.0,  999.0,  999.0,  999.0,   -0.5,  999.0,   -0.4,  999.0,   -1.7,   -0.8,   -0.3,   -0.2,   -0.0,   -0.2,   -0.1,    0.0,    0.0,    0.1,   -0.0,   -0.0,    0.2,   -0.0,    0.2,   -0.4,    0.1,    0.1,   -0.1,  999.0,    0.1,    0.0,    0.0,    0.1,   -0.2,    0.1,    0.1,    0.1,   -0.1,    0.2,   -0.1,  999.0,  999.0,  999.0,  999.0,  999.0
2016/03/23 12:50,  999.0,   -0.0,    0.0,    0.1,    0.1,    0.0,    0.0,    0.0,    0.0,   -0.0,    0.0,    0.1,    0.0,    0.1,    0.1,    0.0,    0.1,   -0.0,    0.1,    0.2,    0.3,    0.6,    0.5,    0.2,    0.1,   -0.2,   -0.2,   -0.2,   -0.0,    0.1,   -0.1,    0.2,    0.0,  999.0,    0.1,   -0.3,  999.0,  999.0,   -0.2,   -0.1,   -0.5,   -0.2,   -0.3,   -0.5,   -0.5,   -0.1,   -0.1,    0.0,    0.2,    0.2,    0.2,    0.2,    0.1,    0.1,   -0.3,   -0.0,    0.1,    0.0,   -0.0,    0.1,    0.2,   -0.1,   -0.0,   -0.2,   -0.1,   -0.1,   -0.0,    0.0,   -0.1,   -0.2,    0.0,    0.1,  999.0,  999.0,  999.0,  999.0,  999.0,  999.0,  999.0,  999.0
2016/03/23 13:00,  999.0,   -0.4,   -0.3,    0.1,   -0.0,    0.1,    0.2,    0.1,   -0.1,   -0.0,   -0.1,   -0.1,   -0.0,    0.0,    0.2,    0.1,    0.1,    0.0,    0.2,    0.2,    0.2,    0.1,    0.5,    0.3,   -0.2,   -0.1,   -0.3,    0.1,   -0.1,   -0.0,    0.0,   -0.2,   -0.3,   -0.0,   -0.1,   -0.1,   -0.4,   -0.2,   -0.1,    0.0,   -0.3,   -0.5,   -0.1,   -0.1,   -0.4,   -0.6,   -0.8,   -0.4,    0.1,    0.1,    0.1,   -0.2,   -0.2,    0.2,   -0.2,    0.1,   -0.1,   -0.1,    0.1,   -0.0,    0.0,   -0.1,    0.1,    0.0,   -0.0,    0.2,   -0.2,   -0.1,   -0.1,   -0.1,    0.0,  999.0,  999.0,   -0.1,    0.0,  999.0,  999.0,  999.0,  999.0,  999.0
2016/03/23 13:10,  999.0,    0.2,   -0.1,    0.0,    0.0,    0.1,    0.1,    0.1,    0.0,   -0.0,   -0.0,   -0.1,   -0.1,    0.0,    0.1,    0.0,   -0.1,   -0.2,   -0.1,   -0.1,    0.0,   -0.3,   -0.1,   -0.3,   -0.7,   -0.1,   -0.7,   -0.5,   -0.4,   -0.3,   -0.3,   -0.2,   -0.2,    0.0,   -0.0,   -0.1,  999.0,   -1.0,   -0.1,    0.2,   -0.3,   -0.3,   -0.2,   -0.4,   -0.2,   -0.3,   -0.7,   -0.7,   -0.1,    0.1,   -0.1,    0.1,    0.1,    0.2,    0.1,    0.1,   -0.1,    0.1,    0.1,    0.1,   -0.1,   -0.1,    0.1,   -0.3,   -0.1,   -0.0,    0.3,   -0.1,  999.0,   -0.1,   -0.1,  999.0,   -0.0,  999.0,    0.0,  999.0,  999.0,  999.0,  999.0,  999.0
2016/03/23 13:20,  999.0,   -0.0,   -0.1,   -0.0,    0.0,   -0.0,    0.0,    0.0,    0.1,    0.2,    0.2,   -0.0,   -0.2,    0.0,    0.1,    0.1,    0.0,    0.0,    0.0,    0.2,    0.0,    0.2,   -0.3,    0.2,   -0.0,   -0.2,   -0.4,   -0.2,   -0.1,   -0.2,   -0.7,   -0.0,    0.1,   -0.2,   -0.4,    0.6,   -0.1,  999.0,    0.1,   -0.3,   -0.5,   -0.4,    0.2,    0.1,   -0.1,   -0.2,    0.0,   -0.1,   -0.1,   -0.3,   -0.1,    0.0,    0.2,    0.2,    0.1,    0.1,    0.0,   -0.1,   -0.0,    0.2,    0.1,    0.2,    0.1,   -0.2,    0.1,   -0.0,    0.1,    0.1,   -0.1,  999.0,   -0.2,    0.1,    0.3,  999.0,  999.0,  999.0,  999.0,  999.0,  999.0,  999.0
2016/03/23 13:30,  999.0,   -0.0,    0.1,   -0.1,   -0.0,    0.1,    0.1,    0.1,   -0.0,   -0.1,   -0.1,   -0.1,   -0.1,   -0.1,   -0.3,   -0.2,   -0.0,   -0.1,   -0.1,    0.2,   -0.1,    0.1,   -0.6,   -0.2,   -0.4,  999.0,   -0.4,   -0.6,   -0.5,    0.2,   -0.2,  999.0,  999.0,  999.0,   -0.1,  999.0,  999.0,   -0.0,  999.0,   -0.2,   -1.1,  999.0,   -0.0,   -0.2,   -0.0,    0.0,    0.2,    0.2,   -0.0,    0.2,   -0.1,    0.1,    0.2,    0.1,   -0.0,    0.2,   -0.1,    0.0,   -0.3,   -0.2,   -0.1,   -0.1,    0.0,  999.0,  999.0,    0.2,   -0.2,    0.1,    0.2,   -0.0,   -0.2,    0.1,  999.0,  999.0,   -0.2,  999.0,  999.0,  999.0,  999.0,  999.0
2016/03/23 13:40,  999.0,    0.2,    0.2,    0.1,   -0.1,   -0.1,   -0.1,    0.0,   -0.0,    0.0,   -0.0,   -0.1,    0.1,    0.0,   -0.3,   -0.1,   -0.2,   -0.4,   -0.3,   -0.1,   -0.3,   -0.3,   -0.3,   -0.5,   -0.4,   -0.7,   -1.6,   -2.0,   -1.5,    0.1,   -0.9,   -0.0,  999.0,  999.0,  999.0,  999.0,  999.0,  999.0,   -1.7,   -1.4,   -1.1,  999.0,   -0.1,   -0.0,    0.0,    0.2,   -0.0,    0.1,   -0.0,   -0.1,   -0.1,   -0.2,   -0.2,    0.1,   -0.1,   -0.1,   -0.1,    0.0,   -0.1,   -0.5,   -0.2,    0.1,    0.1,   -0.0,   -0.1,   -0.1,   -0.0,   -0.2,    0.3,   -0.2,    0.0,   -0.1,  999.0,   -0.2,  999.0,  999.0,  999.0,  999.0,  999.0,  999.0
2016/03/23 13:50,  999.0,    0.2,    0.1,    0.2,   -0.1,   -0.1,   -0.2,    0.0,    0.3,    0.2,    0.0,    0.2,    0.6,    1.0,    0.5,    0.5,   -0.0,    0.2,   -0.4,   -0.4,   -1.3,   -0.7,   -0.7,   -1.0,   -1.3,   -1.3,   -0.7,   -0.7,   -0.3,    0.0,   -0.0,   -0.2,   -0.1,   -0.2,    0.1,   -0.1,   -0.3,   -0.3,    0.2,    0.1,   -1.2,   -0.8,    0.2,    0.2,   -0.1,   -0.2,   -0.4,   -0.1,   -0.2,    0.0,    0.2,   -0.2,    0.0,    0.2,    0.1,    0.3,    0.1,   -0.2,   -0.1,    0.1,    0.1,    0.1,    0.0,   -0.2,   -0.2,   -0.3,   -0.3,    0.0,   -0.1,    0.0,   -0.0,   -0.2,   -0.3,    0.0,  999.0,  999.0,  999.0,  999.0,  999.0,  999.0
2016/03/23 14:00,  999.0,    0.3,   -0.4,    0.1,    0.2,    0.0,    0.3,    0.3,    0.2,    0.3,    1.2,    1.2,    0.7,    1.2,    2.0,    2.2,    1.0,    1.4,    2.3,    3.6,    1.9,    0.7,   -0.8,    0.6,   -0.3,   -1.0,   -0.5,   -0.3,   -0.2,    0.4,   -0.2,    0.1,    0.0,   -0.1,   -0.1,    0.2,    0.1,   -0.1,   -0.1,   -0.4,   -0.6,   -0.3,    0.1,    0.1,   -0.2,   -0.1,   -0.2,   -0.3,   -0.1,    0.1,   -0.1,   -0.0,   -0.0,   -0.0,    0.0,    0.1,   -0.0,   -0.1,   -0.2,   -0.1,    0.2,   -0.2,   -0.0,   -0.1,   -0.0,   -0.0,   -0.0,    0.0,   -0.2,   -0.2,   -0.1,  999.0,  999.0,  999.0,    0.0,  999.0,  999.0,  999.0,  999.0,  999.0
2016/03/23 14:10,  999.0,   -0.3,   -0.2,   -0.3,    0.0,    0.1,   -0.1,    0.1,    0.2,    0.3,    0.1,    0.2,    0.2,    0.3,    0.2,    0.2,    0.1,    0.1,    0.3,    0.4,    0.2,   -0.0,   -0.1,   -0.3,    0.1,    0.6,   -0.1,   -0.2,   -0.0,    0.1,   -0.0,   -0.1,   -0.1,    0.1,   -0.2,    0.0,    0.1,   -0.0,   -0.2,    0.0,   -0.5,   -1.0,   -0.4,   -0.3,   -0.2,   -0.0,   -0.1,   -0.1,   -0.2,   -0.2,    0.1,    0.0,    0.0,   -0.1,   -0.1,   -0.0,    0.1,    0.1,    0.1,   -0.2,    0.0,    0.0,   -0.2,   -0.1,    0.2,   -0.1,    0.0,    0.1,   -0.1,  999.0,  999.0,  999.0,    0.1,   -0.4,  999.0,  999.0,  999.0,  999.0,  999.0,  999.0
2016/03/23 14:20,  999.0,   -0.2,    0.0,    0.1,   -0.1,   -0.1,   -0.2,   -0.1,   -0.0,   -0.0,   -0.2,    0.0,    0.1,    0.1,   -0.1,   -0.1,    0.1,    0.1,   -0.0,   -0.0,   -0.2,   -0.1,    0.0,    0.2,    0.3,    0.4,    0.1,   -0.2,   -0.0,    0.0,    0.2,    0.1,   -0.0,   -0.1,    0.1,    0.1,   -0.0,   -0.0,    0.1,   -0.0,   -0.2,   -0.3,    0.0,   -0.0,    0.0,    0.0,   -0.0,   -0.2,   -0.1,    0.1,    0.1,    0.1,   -0.0,   -0.0,   -0.1,   -0.1,    0.0,    0.1,    0.1,   -0.1,   -0.2,    0.1,   -0.1,    0.2,    0.0,   -0.1,   -0.1,    0.3,    0.2,  999.0,   -0.0,   -0.2,    0.3,  999.0,  999.0,  999.0,  999.0,  999.0,  999.0,  999.0
2016/03/23 14:30,  999.0,   -0.0,    0.2,   -0.1,    0.1,   -0.0,   -0.0,   -0.0,    0.0,    0.3,    0.4,    0.5,    0.7,    1.1,    0.4,    0.5,    0.4,    0.6,    0.4,    1.2,    0.6,    0.6,    0.5,    0.5,    0.3,    0.0,   -0.2,   -0.1,    0.2,   -0.2,   -0.5,   -0.2,    0.0,   -0.1,   -0.6,   -0.3,    0.0,   -0.1,    0.1,    0.0,   -0.3,   -0.5,   -0.1,    0.1,   -0.1,   -0.1,   -0.0,   -0.2,   -0.0,   -0.2,    0.0,   -0.1,   -0.1,    0.1,    0.2,   -0.1,    0.1,    0.1,    0.1,    0.0,    0.0,   -0.0,   -0.0,    0.0,    0.2,    0.0,    0.1,    0.2,    0.1,  999.0,   -0.1,   -0.0,    0.2,   -0.5,    0.0,  999.0,  999.0,  999.0,  999.0,  999.0
2016/03/23 14:40,  999.0,   -0.0,   -0.3,    0.0,   -0.1,    0.0,    0.1,    0.0,   -0.1,    0.2,    0.3,    0.6,    1.2,    0.7,    0.6,    0.5,    0.7,    0.6,    0.5,    0.7,    0.5,    0.2,   -0.9,   -1.6,   -0.0,    0.3,   -0.4,   -0.5,   -0.2,   -0.3,   -0.2,   -0.0,   -0.1,   -0.3,   -0.5,   -0.4,   -0.2,   -0.6,    0.1,   -0.0,   -0.6,   -1.2,   -1.1,   -0.3,   -0.0,    0.0,   -0.0,    0.0,   -0.1,   -0.2,   -0.1,    0.0,   -0.0,   -0.1,   -0.1,   -0.1,   -0.1,   -0.1,   -0.0,   -0.1,    0.1,    0.1,    0.0,   -0.1,  999.0,    0.1,    0.0,   -0.3,   -0.2,   -0.0,   -0.0,    0.0,    0.0,  999.0,    0.0,  999.0,  999.0,  999.0,  999.0,  999.0
2016/03/23 14:50,  999.0,    0.2,    0.0,   -0.2,   -0.2,   -0.0,    0.0,   -0.1,   -0.1,    0.0,   -0.2,   -0.0,    0.3,    0.1,    0.1,    0.3,    0.6,    0.5,    0.9,   -0.1,   -0.1,   -0.5,   -0.2,   -0.4,    0.5,    0.6,   -0.6,   -0.8,   -0.5,   -0.4,   -0.1,    0.1,    0.0,   -0.2,   -0.4,   -0.5,   -0.4,    0.0,    0.2,   -0.2,   -0.8,   -0.6,   -0.1,    0.1,    0.1,    0.1,   -0.1,   -0.2,   -0.2,   -0.2,    0.1,    0.1,   -0.1,   -0.1,   -0.1,    0.1,    0.0,    0.2,    0.1,   -0.1,    0.2,   -0.1,   -0.2,   -0.2,   -0.1,   -0.1,    0.1,   -0.3,   -0.1,   -0.1,    0.0,    0.3,   -0.0,  999.0,   -0.2,  999.0,  999.0,  999.0,  999.0,  999.0
2016/03/23 15:00,  999.0,    0.2,   -0.1,   -0.4,  999.0,  999.0,    0.2,  999.0,    0.1,   -0.1,   -0.1,    0.0,   -0.0,    0.1,    0.3,    0.1,    0.1,   -0.2,    0.3,   -0.1,   -0.2,   -0.3,   -0.1,   -0.3,   -0.9,   -0.6,   -1.5,   -0.6,   -0.1,    0.2,   -0.0,   -0.1,    0.0,   -0.5,   -0.8,   -0.1,   -0.5,    0.0,    0.0,    0.0,   -0.2,   -0.1,   -0.3,   -0.1,   -0.1,    0.0,   -0.1,   -0.1,    0.0,   -0.1,    0.0,   -0.0,    0.0,    0.0,   -0.1,   -0.1,    0.0,    0.1,   -0.2,   -0.1,    0.1,   -0.2,   -0.1,    0.1,   -0.1,   -0.3,    0.0,   -0.1,  999.0,  999.0,    0.1,  999.0,   -0.1,  999.0,    0.3,  999.0,  999.0,  999.0,  999.0,  999.0
2016/03/23 15:10,  999.0,    0.1,    0.2,    0.3,   -0.2,    0.1,    0.0,   -0.2,   -0.1,    0.2,    0.0,    0.2,    0.3,    0.3,    0.2,   -0.0,   -0.1,   -0.0,   -0.1,    0.2,   -0.2,   -0.2,   -1.0,   -1.2,   -0.7,   -0.6,   -0.2,    0.0,    0.4,    0.2,    0.0,   -0.5,   -0.1,   -0.3,   -0.7,   -0.2,    0.1,   -0.2,   -0.2,   -0.0,   -0.1,   -0.2,   -0.2,   -0.0,    0.0,    0.1,   -0.1,   -0.1,    0.2,    0.1,    0.2,   -0.1,    0.2,    0.0,    0.1,   -0.1,   -0.3,    0.0,    0.0,    0.1,    0.0,   -0.1,    0.2,    0.0,   -0.1,   -0.3,    0.3,    0.0,  999.0,  999.0,  999.0,  999.0,    0.0,    0.3,  999.0,  999.0,  999.0,  999.0,  999.0,  999.0
2016/03/23 15:20,  999.0,    0.0,   -0.0,   -0.1,   -0.1,   -0.2,  999.0,  999.0,   -0.2,    0.0,   -0.1,   -0.1,    0.0,    0.1,   -0.1,   -0.1,   -0.0,   -0.1,   -0.0,    0.1,    0.1,   -0.2,   -0.3,   -0.7,   -0.9,   -0.7,   -0.6,   -0.2,   -0.0,   -0.0,    0.1,  999.0,   -0.4,   -0.3,   -0.1,   -0.2,   -0.2,   -0.0,   -0.1,   -0.1,   -0.8,   -0.9,   -0.2,   -0.1,    0.0,    0.0,    0.1,   -0.1,    0.0,    0.0,   -0.1,   -0.0,   -0.1,    0.2,    0.2,    0.1,   -0.1,    0.1,    0.4,    0.1,   -0.0,    0.2,   -0.0,   -0.2,    0.1,   -0.0,  999.0,  999.0,   -0.1,  999.0,  999.0,    0.1,  999.0,    0.1,   -0.2,  999.0,  999.0,  999.0,  999.0,  999.0
2016/03/23 15:30,  999.0,  999.0,   -0.2,   -0.1,    0.1,    0.2,  999.0,   -0.1,    0.0,   -0.0,   -0.0,    0.0,   -0.1,    0.2,    0.1,    0.0,   -0.0,   -0.0,   -0.1,   -0.2,   -0.5,   -0.5,   -0.9,   -1.4,   -1.3,   -0.5,   -0.4,   -0.0,   -0.1,   -0.2,   -0.2,   -0.1,   -0.1,   -0.1,   -0.1,    0.0,   -0.1,   -0.2,   -0.2,    0.1,   -0.4,   -0.4,    0.0,    0.2,    0.0,   -0.1,   -0.2,   -0.1,    0.1,    0.1,   -0.0,   -0.2,   -0.0,   -0.2,   -0.1,   -0.2,    0.2,    0.2,   -0.0,    0.0,    0.0,    0.1,    0.0,   -0.1,    0.1,    0.0,   -0.0,    0.2,    0.2,  999.0,  999.0,  999.0,   -0.1,    0.1,   -0.4,  999.0,  999.0,  999.0,  999.0,  999.0
2016/03/23 15:40,  999.0,   -0.1,    0.1,    0.2,   -0.2,    0.0,   -0.0,   -0.2,   -0.1,    0.0,    0.0,   -0.0,    0.1,    0.2,    0.1,   -0.0,    0.0,    0.0,    0.2,   -0.1,   -0.1,   -0.2,   -0.3,   -0.5,   -0.2,   -0.3,   -0.4,   -0.0,   -0.2,   -0.1,    0.0,    0.0,   -0.2,   -0.3,    0.0,   -0.3,   -0.1,    0.1,    0.1,   -0.2,   -0.6,   -0.4,   -0.0,   -0.2,   -0.2,    0.0,   -0.1,    0.0,   -0.2,   -0.1,   -0.3,   -0.2,    0.1,    0.0,   -0.0,   -0.1,   -0.1,    0.0,   -0.1,   -0.1,    0.0,   -0.2,   -0.3,    0.1,    0.4,  999.0,   -0.4,    0.2,    0.0,  999.0,   -0.1,    0.1,   -0.1,  999.0,   -0.1,  999.0,  999.0,  999.0,  999.0,  999.0
2016/03/23 15:50,  999.0,  999.0,   -0.4,    0.1,    0.4,    0.2,    0.0,    0.0,    0.0,    0.1,    0.0,    0.1,    0.0,   -0.0,    0.1,   -0.2,    0.1,    0.0,    0.1,   -0.1,   -0.2,   -0.2,   -0.1,   -0.0,    0.0,    0.1,    0.1,    0.0,    0.1,    0.1,   -0.0,    0.2,    0.0,   -0.1,    0.0,   -0.1,   -0.0,    0.2,    0.3,    0.3,   -0.4,   -0.3,   -0.0,    0.0,    0.1,    0.1,   -0.1,   -0.0,    0.1,   -0.0,   -0.1,   -0.1,   -0.1,   -0.3,    0.1,   -0.1,    0.1,    0.1,    0.0,   -0.2,    0.1,    0.0,   -0.0,   -0.0,    0.1,    0.1,   -0.0,    0.1,    0.4,  999.0,   -0.0,   -0.0,  999.0,  999.0,    0.3,  999.0,  999.0,  999.0,  999.0,  999.0
2016/03/23 16:00,  999.0,    0.6,    0.1,    0.2,    0.1,    0.1,    0.1,    0.3,    0.1,   -0.0,   -0.1,   -0.0,   -0.1,   -0.1,   -0.1,    0.1,    0.1,    0.1,   -0.0,   -0.1,   -0.2,   -0.2,   -0.2,   -0.3,   -0.4,   -0.1,    0.0,    0.0,   -0.1,   -0.1,   -0.1,   -0.2,   -0.3,   -0.2,   -0.1,   -0.3,    0.0,   -0.1,    0.0,   -0.1,   -0.5,   -0.4,    0.1,    0.1,    0.2,   -0.0,    0.0,    0.1,   -0.1,   -0.0,   -0.2,   -0.1,    0.1,    0.0,    0.2,    0.1,   -0.0,    0.1,    0.3,    0.1,    0.1,    0.1,   -0.0,    0.1,   -0.5,   -0.2,  999.0,    0.1,    0.1,   -0.1,   -0.1,  999.0,   -0.2,  999.0,   -0.3,  999.0,  999.0,  999.0,  999.0,  999.0
2016/03/23 16:10,  999.0,   -0.3,   -0.3,   -0.0,    0.0,   -0.0,   -0.0,    0.3,   -0.1,   -0.2,   -0.2,   -0.0,    0.1,   -0.0,   -0.0,   -0.2,   -0.1,   -0.0,   -0.1,   -0.2,   -0.2,   -0.2,   -0.2,   -0.3,    0.1,    0.0,    0.1,    0.1,    0.3,   -0.0,   -0.1,   -0.1,    0.2,    0.1,   -0.3,   -0.0,    0.2,    0.0,   -0.2,    0.0,   -0.3,   -0.2,   -0.1,   -0.0,    0.1,   -0.0,   -0.2,   -0.3,    0.1,   -0.1,   -0.3,   -0.2,   -0.1,   -0.1,    0.1,   -0.2,   -0.1,    0.1,    0.1,   -0.0,   -0.1,    0.2,   -0.2,    0.0,  999.0,   -0.1,    0.1,   -0.4,    0.2,    0.3,    0.1,   -0.4,  999.0,  999.0,  999.0,  999.0,  999.0,  999.0,  999.0,  999.0
2016/03/23 16:20,  999.0,    0.3,   -0.1,    0.2,   -0.1,    0.0,    0.1,   -0.0,    0.1,   -0.1,   -0.1,   -0.1,   -0.1,   -0.1,   -0.1,   -0.1,   -0.1,   -0.1,   -0.0,   -0.0,    0.2,    0.2,   -0.1,   -0.2,   -0.2,   -0.1,   -0.1,   -0.2,   -0.2,    0.1,    0.1,   -0.0,   -0.3,   -0.4,   -0.4,   -0.2,   -0.2,   -0.1,   -0.5,   -0.0,   -0.3,   -0.1,    0.1,    0.0,    0.1,   -0.0,    0.0,   -0.2,   -0.2,   -0.2,   -0.1,   -0.0,    0.0,   -0.2,    0.1,    0.0,    0.0,   -0.2,    0.1,    0.4,   -0.1,    0.0,   -0.1,    0.3,  999.0,    0.1,   -0.1,    0.0,   -0.4,  999.0,    0.2,  999.0,  999.0,  999.0,  999.0,  999.0,  999.0,  999.0,  999.0,  999.0
2016/03/23 16:30,  999.0,   -0.0,    0.2,    0.2,    0.1,   -0.0,   -0.0,   -0.1,    0.3,    0.1,    0.0,    0.0,    0.0,    0.0,    0.0,    0.1,    0.1,    0.0,    0.0,    0.0,   -0.0,    0.1,   -0.0,   -0.1,   -0.2,    0.3,    0.2,    0.1,   -0.0,   -0.0,   -0.2,   -0.1,   -0.1,   -0.2,   -0.2,   -0.3,   -0.0,    0.0,  999.0,    0.1,   -1.0,   -0.5,    0.1,    0.1,   -0.0,   -0.1,    0.0,   -0.1,    0.0,    0.1,   -0.1,    0.2,   -0.0,    0.2,   -0.2,    0.2,   -0.0,   -0.1,    0.1,    0.0,    0.0,   -0.1,  999.0,    0.4,    0.3,   -0.2,   -0.3,   -0.1,    0.1,  999.0,   -0.2,   -0.3,  999.0,    0.1,  999.0,  999.0,  999.0,  999.0,  999.0,  999.0
2016/03/23 16:40,  999.0,    0.4,   -0.1,    0.1,    0.1,    0.1,    0.0,    0.1,    0.0,   -0.0,    0.1,    0.1,    0.0,   -0.0,   -0.1,    0.0,   -0.1,   -0.0,   -0.2,   -0.1,   -0.1,   -0.1,   -0.2,   -0.2,   -0.1,   -0.1,   -0.2,   -0.0,   -0.0,   -0.4,    0.1,   -0.6,   -0.2,   -0.5,   -0.1,   -0.1,   -0.0,   -0.2,   -0.1,   -0.1,   -0.4,   -0.5,   -0.1,   -0.1,    0.0,   -0.0,   -0.1,   -0.3,   -0.4,   -0.1,   -0.1,   -0.2,   -0.3,   -0.2,   -0.1,   -0.2,    0.1,    0.0,   -0.0,   -0.3,   -0.1,    0.1,    0.1,   -0.2,   -0.2,    0.1,  999.0,    0.1,  999.0,   -0.2,  999.0,    0.1,    0.1,  999.0,  999.0,  999.0,  999.0,  999.0,  999.0,  999.0
2016/03/23 16:50,  999.0,  999.0,   -0.4,   -0.1,    0.0,    0.1,    0.1,    0.0,    0.0,    0.0,    0.1,    0.1,   -0.0,    0.1,    0.0,    0.0,    0.0,   -0.1,    0.1,    0.1,   -0.1,   -0.1,   -0.1,   -0.1,   -0.1,    0.1,   -0.0,   -0.1,   -0.3,   -0.3,   -0.4,   -0.7,   -0.7,   -0.6,   -0.7,   -0.4,   -0.1,    0.0,   -0.4,   -0.2,   -0.4,   -0.3,   -0.1,   -0.1,   -0.3,   -0.2,   -0.0,   -0.1,   -0.1,   -0.1,    0.2,   -0.1,   -0.2,   -0.2,   -0.0,   -0.1,   -0.1,    0.5,    0.1,   -0.1,   -0.2,   -0.0,   -0.0,   -0.2,    0.0,   -0.1,   -0.3,    0.1,   -0.6,  999.0,  999.0,  999.0,  999.0,    0.2,  999.0,  999.0,  999.0,  999.0,  999.0,  999.0
2016/03/23 17:00,  999.0,  999.0,    0.1,   -0.2,   -0.1,   -0.0,   -0.1,    0.0,   -0.0,   -0.1,   -0.1,   -0.0,   -0.0,    0.0,    0.1,    0.1,   -0.0,    0.0,   -0.0,   -0.0,   -0.1,   -0.1,   -0.1,    0.1,   -0.1,   -0.2,   -0.2,   -0.2,   -0.8,   -0.6,   -0.7,   -0.6,   -0.2,   -0.2,    0.0,   -0.1,   -0.2,    0.1,   -0.0,    0.0,   -0.4,   -0.3,    0.0,   -0.1,   -0.2,   -0.2,   -0.1,   -0.0,   -0.0,   -0.2,   -0.1,   -0.1,   -0.2,   -0.0,   -0.1,   -0.4,   -0.0,   -0.2,    0.0,   -0.3,   -0.1,    0.2,    0.4,   -0.1,   -0.1,    0.0,  999.0,    0.0,    0.2,  999.0,    0.1,   -0.2,  999.0,  999.0,  999.0,  999.0,  999.0,  999.0,  999.0,  999.0
2016/03/23 17:10,  999.0,  999.0,   -0.3,    0.0,    0.2,    0.1,    0.2,    0.0,    0.1,    0.2,    0.2,    0.1,    0.1,    0.1,    0.0,    0.1,   -0.0,    0.1,   -0.1,   -0.0,   -0.3,   -0.4,   -0.1,   -0.2,    0.0,    0.1,    0.1,    0.0,   -0.5,   -0.4,   -0.4,   -0.5,   -0.2,   -0.3,   -0.2,    0.0,    0.1,   -0.1,   -0.2,   -0.3,   -0.3,   -0.0,   -0.2,   -0.1,   -0.0,   -0.1,   -0.1,    0.1,   -0.1,    0.1,    0.0,   -0.2,   -0.0,   -0.3,   -0.3,   -0.2,   -0.0,    0.3,   -0.1,   -0.0,   -0.0,    0.1,    0.2,    0.0,    0.1,    0.0,    0.3,   -0.1,   -0.1,   -0.2,   -0.2,  999.0,  999.0,   -0.2,  999.0,  999.0,  999.0,  999.0,  999.0,  999.0
2016/03/23 17:20,  999.0,  999.0,   -0.0,    0.0,  999.0,    0.1,   -0.0,    0.0,    0.0,    0.1,    0.5,    0.4,    0.2,    0.2,    0.1,    0.3,   -0.1,   -0.0,   -0.1,   -0.0,   -0.0,   -0.2,   -0.2,   -0.1,   -0.1,   -0.1,    0.0,   -0.0,   -0.0,   -0.2,   -0.2,   -0.3,    0.1,   -0.2,    0.1,   -0.0,   -0.0,    0.1,   -0.1,   -0.2,   -0.6,   -0.2,    0.1,   -0.2,   -0.0,   -0.1,   -0.1,   -0.2,   -0.2,   -0.2,   -0.4,   -0.2,   -0.3,   -0.2,   -0.2,   -0.2,   -0.0,    0.0,    0.1,    0.3,   -0.0,    0.1,   -0.2,    0.2,   -0.0,    0.2,    0.0,   -0.5,  999.0,   -0.2,    0.0,   -0.0,  999.0,  999.0,  999.0,  999.0,  999.0,  999.0,  999.0,  999.0
2016/03/23 17:30,  999.0,  999.0,   -0.0,    0.3,    0.3,    0.2,  999.0,   -0.0,   -0.0,    0.1,    0.1,    0.1,    0.2,    0.2,    0.1,   -0.1,   -0.1,   -0.1,   -0.1,   -0.0,    0.0,    0.1,   -0.1,   -0.1,   -0.0,   -0.1,   -0.1,   -0.2,   -0.1,   -0.1,   -0.3,   -0.1,    0.0,    0.2,   -0.1,    0.0,   -0.2,   -0.1,   -0.1,   -0.1,   -0.8,   -0.2,   -0.3,   -0.2,    0.0,   -0.0,   -0.1,   -0.0,   -0.1,   -0.4,   -0.3,   -0.1,   -0.0,   -0.5,   -0.4,    0.1,   -0.1,    0.1,   -0.0,   -0.2,    0.3,    0.1,    0.1,  999.0,   -0.0,   -0.2,   -0.2,  999.0,   -0.1,    0.4,  999.0,  999.0,    0.3,    0.1,  999.0,  999.0,  999.0,  999.0,  999.0,  999.0
2016/03/23 17:40,  999.0,   -0.0,   -0.0,    0.0,    0.2,    0.2,    0.2,  999.0,   -0.0,   -0.0,    0.1,   -0.1,   -0.1,    0.0,   -0.2,   -0.1,   -0.1,   -0.1,    0.0,   -0.1,   -0.1,    0.1,    0.0,   -0.0,    0.1,    0.1,   -0.1,   -0.0,   -0.1,   -0.2,   -0.1,   -0.2,   -0.1,   -0.2,   -0.0,    0.1,   -0.2,   -0.2,   -0.2,   -0.2,   -0.6,   -0.4,   -0.1,   -0.1,   -0.1,   -0.2,   -0.1,   -0.1,   -0.0,   -0.0,   -0.1,    0.2,    0.1,   -0.2,   -0.0,   -0.1,   -0.1,    0.1,    0.0,    0.3,   -0.2,    0.0,    0.0,    0.2,    0.3,   -0.0,  999.0,    0.0,    0.2,   -0.4,  999.0,  999.0,    0.0,  999.0,  999.0,  999.0,  999.0,  999.0,  999.0,  999.0
2016/03/23 17:50,  999.0,  999.0,   -0.1,    0.1,    0.3,    0.2,    0.2,    0.1,   -0.0,    0.1,    0.2,    0.2,    0.1,    0.2,    0.2,   -0.1,   -0.1,    0.1,   -0.0,   -0.3,   -0.2,   -0.1,   -0.0,    0.0,   -0.1,   -0.1,   -0.1,   -0.1,   -0.2,   -0.1,   -0.1,   -0.2,   -0.6,   -0.9,   -0.9,   -0.6,   -0.5,   -0.2,   -0.5,   -0.1,   -0.7,   -0.3,    0.0,   -0.1,   -0.1,   -0.1,   -0.1,   -0.1,   -0.0,    0.1,   -0.1,   -0.1,   -0.2,    0.0,    0.1,   -0.0,   -0.0,    0.0,   -0.1,    0.1,    0.1,    0.3,   -0.0,   -0.3,    0.4,   -0.1,   -0.2,   -0.1,    0.3,  999.0,  999.0,  999.0,    0.1,    0.1,  999.0,  999.0,  999.0,  999.0,  999.0,  999.0
2016/03/23 18:00,  999.0,  999.0,    0.1,    0.1,   -0.1,  999.0,    0.2,    0.1,  999.0,    0.0,    0.3,    0.1,    0.1,    0.1,   -0.0,    0.0,   -0.0,   -0.5,   -0.2,    0.0,    0.1,   -0.0,   -0.2,   -0.2,   -0.1,   -0.1,   -0.4,   -0.3,   -0.0,   -0.2,   -0.1,   -0.1,   -0.2,   -0.3,   -0.9,    0.0,    0.1,  999.0,   -0.2,   -0.1,   -0.6,   -0.4,   -0.1,   -0.1,   -0.2,   -0.0,    0.1,   -0.1,   -0.1,   -0.2,    0.1,   -0.1,   -0.0,    0.2,    0.2,   -0.1,   -0.0,   -0.1,   -0.0,    0.1,    0.1,    0.2,    0.2,    0.0,   -0.4,   -0.2,  999.0,  999.0,    0.2,  999.0,   -0.2,   -0.3,  999.0,  999.0,  999.0,  999.0,  999.0,  999.0,  999.0,  999.0
2016/03/23 18:10,  999.0,   -0.2,   -0.0,    0.0,    0.1,    0.3,    0.2,    0.0,    0.2,    0.2,    0.0,    0.1,    0.2,    0.1,    0.0,    0.2,    0.2,    0.0,    0.1,    0.0,    0.1,   -0.1,   -0.1,   -0.1,    0.0,    0.2,    0.0,   -0.0,    0.0,    0.0,   -0.3,   -0.2,   -0.1,    0.1,   -0.2,   -0.3,   -0.2,    0.1,   -0.1,   -0.3,   -0.2,   -0.2,   -0.1,   -0.1,    0.0,    0.0,    0.1,   -0.1,   -0.3,   -0.1,    0.2,   -0.2,    0.0,    0.1,    0.2,    0.0,    0.1,    0.2,   -0.1,   -0.2,   -0.8,    0.0,   -0.2,    0.0,   -0.1,   -0.2,   -0.0,    0.0,   -0.1,  999.0,   -0.0,   -0.2,  999.0,  999.0,  999.0,  999.0,  999.0,  999.0,  999.0,  999.0
2016/03/23 18:20,  999.0,  999.0,   -0.1,   -0.0,   -0.0,    0.2,    0.3,    0.1,   -0.0,   -0.0,    0.2,    0.4,    0.4,    0.5,    0.3,    0.4,    0.3,    0.5,    0.4,    0.2,    0.0,    0.1,    0.0,    0.0,   -0.1,    0.0,    0.2,    0.3,    0.1,    0.1,   -0.1,   -0.0,   -0.1,    0.3,    0.4,  999.0,    0.0,  999.0,   -0.0,   -0.2,   -0.3,   -0.0,    0.1,   -0.0,    0.3,    0.1,   -0.0,   -0.2,    0.0,   -0.1,   -0.0,    0.2,    0.2,   -0.1,    0.1,   -0.2,   -0.0,   -0.1,    0.1,    0.1,  999.0,   -0.1,   -0.2,  999.0,  999.0,   -0.1,  999.0,  999.0,    0.1,  999.0,   -0.1,    0.1,  999.0,  999.0,  999.0,  999.0,  999.0,  999.0,  999.0,  999.0
2016/03/23 18:30,  999.0,   -0.1,   -0.0,    0.0,    0.1,   -0.1,    0.1,    0.2,    0.1,    0.2,    0.3,    0.2,    0.3,    0.4,    0.5,    0.4,    0.2,    0.2,    0.1,    0.5,    0.5,    1.3,    0.1,    0.1,    0.3,   -0.1,   -0.1,  999.0,  999.0,  999.0,  999.0,  999.0,   13.5,   14.4,   14.4,   20.8,  999.0,  999.0,  999.0,  999.0,   -0.7,  999.0,   -0.2,   -0.1,   -0.1,    0.1,    0.1,    0.1,    0.1,   -0.3,    0.1,    0.3,    0.2,    0.2,    0.3,   -0.2,   -0.3,    0.1,   -0.0,   -0.1,   -1.1,   -0.1,   -0.5,  999.0,    0.3,  999.0,  999.0,  999.0,  999.0,  999.0,    0.0,  999.0,  999.0,  999.0,  999.0,  999.0,  999.0,  999.0,  999.0,  999.0
2016/03/23 18:40,  999.0,  999.0,   -0.1,    0.1,    0.1,   -0.0,    0.2,    0.1,    0.0,    0.0,    0.2,    0.1,    0.1,    0.1,    0.3,    0.4,    0.3,    0.2,    0.2,    0.4,    0.2,    0.8,    1.1,    0.6,  999.0,  999.0,  999.0,  999.0,  999.0,  999.0,   17.4,   17.2,   17.9,   18.6,   19.6,   19.8,  999.0,  999.0,  999.0,  999.0,  999.0,  999.0,  999.0,  999.0,    0.5,    0.1,   -0.2,   -0.1,    0.0,  999.0,    0.2,    0.3,    0.1,    0.0,   -0.2,   -0.0,    0.2,   -0.1,   -0.0,    0.4,  999.0,  999.0,  999.0,  999.0,  999.0,  999.0,  999.0,    0.0,    0.2,  999.0,  999.0,  999.0,  999.0,    0.2,  999.0,  999.0,  999.0,  999.0,  999.0,  999.0
2016/03/23 18:50,  999.0,   -0.3,   -0.1,   -0.1,   -0.0,   -0.1,    0.2,    0.1,    0.2,    0.0,    0.1,    0.2,    0.3,    0.3,    0.3,    0.3,    0.1,    0.3,    0.3,    0.6,    0.5,    0.9,    1.0,    0.4,  999.0,  999.0,  999.0,  999.0,   17.6,   16.6,   15.5,   16.1,   17.6,   18.2,   18.2,   18.8,   22.5,   22.9,   24.1,   25.5,   26.0,  999.0,  999.0,  999.0,  999.0,  999.0,  999.0,  999.0,  999.0,  999.0,  999.0,  999.0,    0.0,   -0.1,    0.0,    0.2,    0.3,   -0.3,  999.0,    0.3,  999.0,  999.0,  999.0,   -0.0,  999.0,  999.0,  999.0,   -0.5,  999.0,  999.0,  999.0,  999.0,    0.0,  999.0,   -0.0,  999.0,  999.0,  999.0,  999.0,  999.0
2016/03/23 19:00,  999.0,    0.1,    0.1,    0.1,    0.1,   -0.0,   -0.0,   -0.0,    0.1,    0.0,    0.4,    0.3,    0.2,    0.3,    0.1,    0.0,    0.1,    0.1,    0.2,    0.2,    0.2,    0.4,    0.8,   -0.9,  999.0,  999.0,  999.0,  999.0,   14.7,   14.2,   14.0,   12.9,   15.0,   16.0,   17.9,   19.5,   22.3,   24.0,   24.2,   23.6,  999.0,  999.0,  999.0,  999.0,  999.0,  999.0,  999.0,  999.0,   -0.1,  999.0,  999.0,  999.0,    0.3,    0.0,   -0.0,    0.2,    0.2,    0.1,    0.0,   -0.2,   -0.1,  999.0,  999.0,   -0.2,    0.4,  999.0,   -0.2,  999.0,  999.0,  999.0,    0.0,  999.0,  999.0,  999.0,  999.0,  999.0,  999.0,  999.0,  999.0,  999.0
2016/03/23 19:10,  999.0,   -0.1,    0.0,    0.2,    0.0,    0.0,    0.3,    0.2,    0.2,    0.2,    0.4,    0.4,    0.4,    0.5,    0.2,    0.4,    0.6,    0.3,    0.3,    2.7,    9.5,  999.0,  999.0,  999.0,  999.0,   17.1,   16.7,   15.5,   13.8,   12.8,   12.5,   13.8,   15.5,   17.8,   19.7,   21.5,   24.0,   26.3,  999.0,  999.0,  999.0,  999.0,  999.0,  999.0,  999.0,  999.0,  999.0,  999.0,  999.0,    0.0,    0.1,  999.0,    0.3,    0.2,   -0.2,    0.3,    0.3,   -0.6,  999.0,  999.0,    0.0,   -0.2,    0.1,   -0.1,    0.2,   -0.4,  999.0,  999.0,  999.0,  999.0,  999.0,  999.0,    0.2,   -0.3,  999.0,  999.0,  999.0,  999.0,  999.0,  999.0
2016/03/23 19:20,  999.0,   -0.1,    0.0,   -0.0,   -0.0,  999.0,    0.1,   -0.0,    0.1,    0.2,    0.3,    0.4,    0.3,    0.4,   -0.1,    0.5,  999.0,    0.1,  999.0,   10.7,  999.0,  999.0,  999.0,  999.0,   17.9,   15.4,   13.6,   12.4,   12.3,   13.2,   13.6,   15.6,   16.2,   18.1,   21.4,   24.7,   25.6,   26.7,  999.0,  999.0,  999.0,  999.0,  999.0,  999.0,  999.0,  999.0,  999.0,  999.0,  999.0,    0.3,    0.2,  999.0,    0.1,    0.0,   -0.1,  999.0,   -0.0,    0.4,   -0.2,  999.0,    0.3,    0.2,  999.0,    0.3,   -0.3,   -0.3,   -0.1,    0.3,   -0.3,  999.0,   -0.4,   -0.2,    0.3,    0.2,  999.0,  999.0,  999.0,  999.0,  999.0,  999.0
2016/03/23 19:30,  999.0,   -0.0,    0.2,    0.1,    0.1,    0.1,    0.0,    0.1,    0.2,    0.4,    1.0,    0.9,    1.1,    2.3,    2.3,  999.0,  999.0,  999.0,  999.0,  999.0,  999.0,  999.0,  999.0,   19.9,   18.2,   16.2,   14.7,   13.4,   12.7,   13.3,   13.9,   15.2,   17.1,   19.3,   21.4,   23.6,   25.0,  999.0,  999.0,  999.0,  999.0,  999.0,  999.0,  999.0,  999.0,  999.0,  999.0,  999.0,   -0.2,  999.0,  999.0,  999.0,    0.1,   -0.1,    0.0,   -0.0,  999.0,    0.1,  999.0,  999.0,    0.1,    0.2,   -0.2,  999.0,   -0.3,  999.0,    0.8,  999.0,  999.0,  999.0,  999.0,    0.3,  999.0,  999.0,  999.0,  999.0,  999.0,  999.0,  999.0,  999.0
2016/03/23 19:40,  999.0,   -0.1,    0.2,    0.1,    0.1,   -0.1,   -0.1,   -0.1,    0.2,    0.9,    1.9,    1.2,    0.9,    2.6,    3.5,    6.4,    6.6,   12.4,   17.4,   21.2,   22.8,   21.4,   20.1,   18.9,   18.0,   16.5,   15.3,   13.8,   13.0,   13.2,   14.2,   15.7,   18.1,   19.5,  999.0,  999.0,  999.0,  999.0,  999.0,  999.0,  999.0,  999.0,  999.0,   -0.3,    0.2,    0.3,   -0.5,    0.1,   -0.0,   -0.1,    0.0,    0.1,    0.1,   -0.0,    0.0,   -0.2,    0.0,  999.0,    0.0,    0.2,   -0.2,    0.1,  999.0,    0.1,    0.0,  999.0,   -0.2,    0.1,   -0.1,  999.0,    0.0,  999.0,  999.0,  999.0,  999.0,  999.0,  999.0,  999.0,  999.0,  999.0
2016/03/23 19:50,  999.0,    0.0,    0.0,    0.1,    0.2,   -0.1,    0.1,    0.3,    0.3,    1.5,    2.8,    2.4,    1.3,    1.8,    1.1,    2.6,  999.0,  999.0,  999.0,  999.0,  999.0,  999.0,   18.7,   18.9,   17.7,   16.1,   14.4,   12.9,   11.8,   13.5,   14.8,   16.2,   18.8,   19.5,   22.3,   21.8,   22.5,  999.0,  999.0,  999.0,  999.0,  999.0,  999.0,  999.0,  999.0,  999.0,   -0.2,  999.0,   -0.5,   -0.3,  999.0,  999.0,    0.1,   -0.0,    0.2,    0.1,    0.0,   -0.1,   -0.0,    0.3,    0.3,    0.2,   -0.3,   -0.2,    0.0,  999.0,  999.0,  999.0,  999.0,    0.2,  999.0,  999.0,  999.0,  999.0,  999.0,  999.0,  999.0,  999.0,  999.0,  999.0
2016/03/23 20:00,  999.0,    0.1,    0.1,    0.1,   -0.0,   -0.1,   -0.0,   -0.2,    0.2,    0.6,    1.6,    1.7,    1.2,    1.3,    1.3,    2.4,    1.6,    0.4,  999.0,  999.0,  999.0,  999.0,  999.0,   18.3,   16.2,   15.2,   14.9,   12.9,   11.8,   12.6,   14.1,   16.4,   19.4,   20.9,   20.7,  999.0,  999.0,  999.0,  999.0,  999.0,  999.0,  999.0,  999.0,  999.0,   -0.1,   -0.1,    0.2,    0.3,    0.1,   -0.1,  999.0,   -0.5,   -0.3,   -0.1,   -0.0,    0.2,    0.5,   -0.1,    0.1,   -0.2,   -0.0,   -0.2,   -0.1,   -0.5,  999.0,    0.0,    0.6,  999.0,  999.0,  999.0,  999.0,  999.0,  999.0,  999.0,  999.0,  999.0,  999.0,  999.0,  999.0,  999.0
2016/03/23 20:10,  999.0,    0.1,    0.1,    0.1,   -0.0,    0.1,    0.0,    0.1,    0.5,    1.5,    2.0,    1.0,    0.3,    0.6,   -0.2,    0.5,    0.5,    1.1,    0.5,    0.8,   -0.1,   -1.2,  999.0,  999.0,  999.0,  999.0,  999.0,   13.2,   12.5,   13.3,   12.7,   14.3,   16.2,   18.8,  999.0,  999.0,  999.0,  999.0,  999.0,  999.0,  999.0,  999.0,  999.0,  999.0,   -0.3,   -0.4,   -0.2,   -0.1,   -0.1,  999.0,   -0.0,   -0.3,  999.0,  999.0,    0.1,  999.0,    0.4,    0.0,   -0.9,    0.2,    0.1,    0.3,    0.3,    0.2,   -0.0,   -0.1,   -0.3,  999.0,  999.0,  999.0,  999.0,  999.0,  999.0,  999.0,  999.0,  999.0,  999.0,  999.0,  999.0,  999.0
2016/03/23 20:20,  999.0,    0.2,    0.2,    0.2,    0.0,    0.1,    0.1,    0.5,    1.6,    1.8,    1.3,    1.3,    1.0,    0.6,    0.8,    0.5,    0.3,    0.9,    0.3,  999.0,  999.0,  999.0,  999.0,  999.0,   13.8,   14.9,   14.6,   13.5,   13.3,   14.0,   15.2,   16.8,   18.0,  999.0,  999.0,  999.0,  999.0,  999.0,  999.0,  999.0,  999.0,  999.0,  999.0,  999.0,  999.0,   -0.1,  999.0,  999.0,  999.0,    0.3,   -0.3,   -0.2,   -0.2,   -0.2,   -0.0,  999.0,    0.0,  999.0,   -0.3,    0.3,  999.0,  999.0,  999.0,  999.0,  999.0,  999.0,  999.0,    0.1,  999.0,  999.0,  999.0,  999.0,  999.0,    0.0,  999.0,  999.0,  999.0,  999.0,  999.0,  999.0
2016/03/23 20:30,  999.0,   -0.0,   -0.0,   -0.0,    0.2,    0.4,    0.3,    0.5,    0.7,    0.8,    0.7,    1.0,    1.3,    1.5,    2.8,    3.1,    1.7,    1.3,    0.1,    0.2,  999.0,  999.0,   14.2,   13.8,   14.2,   13.1,   13.6,   12.0,   13.7,   13.9,   15.2,   16.0,  999.0,  999.0,  999.0,  999.0,  999.0,  999.0,  999.0,  999.0,  999.0,  999.0,  999.0,  999.0,  999.0,  999.0,  999.0,  999.0,    0.0,  999.0,  999.0,  999.0,  999.0,    0.1,    0.2,  999.0,  999.0,  999.0,    0.0,  999.0,    0.0,  999.0,  999.0,  999.0,  999.0,  999.0,  999.0,  999.0,  999.0,  999.0,  999.0,  999.0,  999.0,  999.0,  999.0,  999.0,  999.0,  999.0,  999.0,  999.0
2016/03/23 20:40,  999.0,   -0.3,   -0.0,   -0.0,   -0.1,    0.0,    0.3,    0.4,    0.7,    0.6,    1.2,    1.2,    1.5,    3.8,    3.6,    3.7,    6.7,    3.6,    0.9,    0.2,    0.5,    0.6,    0.9,    3.5,  999.0,  999.0,   14.6,   14.0,   13.0,   12.4,   14.0,   16.0,   18.8,   20.4,   22.1,   22.1,   21.9,   23.6,   25.0,   25.9,   26.0,  999.0,  999.0,  999.0,  999.0,  999.0,  999.0,  999.0,  999.0,  999.0,  999.0,  999.0,  999.0,  999.0,   -0.1,   -0.1,    0.0,  999.0,  999.0,    0.3,  999.0,  999.0,  999.0,  999.0,  999.0,  999.0,  999.0,  999.0,  999.0,  999.0,  999.0,  999.0,  999.0,  999.0,  999.0,  999.0,  999.0,  999.0,  999.0,  999.0
2016/03/23 20:50,  999.0,   -0.1,    0.3,   -0.3,    0.1,   -0.0,    0.3,    0.1,    0.4,    0.4,    1.1,    1.1,    2.5,    3.7,    3.7,    3.4,    4.7,    6.2,    0.3,    2.0,    7.6,  999.0,   12.3,   12.9,   15.6,   15.4,   14.8,   13.5,   11.9,   12.3,   14.5,   16.6,   18.3,   20.4,   22.2,   22.3,   22.3,  999.0,   24.2,  999.0,  999.0,  999.0,  999.0,  999.0,  999.0,  999.0,  999.0,  999.0,  999.0,  999.0,  999.0,  999.0,  999.0,  999.0,  999.0,  999.0,  999.0,  999.0,  999.0,  999.0,  999.0,  999.0,  999.0,  999.0,  999.0,  999.0,  999.0,   -0.1,   -0.1,  999.0,   -0.1,  999.0,   -0.3,  999.0,  999.0,  999.0,  999.0,  999.0,  999.0,  999.0
2016/03/23 21:00,  999.0,   -0.1,   -0.1,    0.1,    0.1,    0.0,    0.4,    0.3,    0.6,    0.8,    1.5,    1.2,    2.2,    2.7,    4.0,    7.2,    9.6,   10.4,   12.0,   14.0,  999.0,   12.6,   11.9,   16.9,   15.5,   15.8,   13.7,   13.6,   13.1,   13.5,   14.4,   15.9,   18.0,   19.5,   20.8,   20.8,   22.1,   22.8,   24.0,   26.0,   27.7,  999.0,  999.0,  999.0,  999.0,  999.0,  999.0,  999.0,  999.0,  999.0,  999.0,  999.0,  999.0,  999.0,  999.0,  999.0,  999.0,  999.0,  999.0,  999.0,  999.0,  999.0,  999.0,  999.0,  999.0,  999.0,  999.0,  999.0,  999.0,  999.0,  999.0,  999.0,  999.0,  999.0,  999.0,  999.0,  999.0,  999.0,  999.0,  999.0
2016/03/23 21:10,  999.0,    0.0,    0.0,   -0.0,   -0.0,   -0.0,    0.1,    0.5,    0.4,   -0.7,    2.7,    2.2,    3.8,    8.2,   11.3,   13.6,   14.3,   15.6,   17.4,   19.6,   18.9,   19.9,   18.8,   16.9,   16.0,   15.7,   15.2,   14.4,   14.0,   13.9,   14.4,   14.8,   16.7,   17.9,   18.6,   20.3,   21.6,   22.1,   23.0,   22.9,  999.0,  999.0,  999.0,  999.0,  999.0,  999.0,  999.0,  999.0,  999.0,  999.0,  999.0,  999.0,  999.0,  999.0,  999.0,  999.0,  999.0,  999.0,  999.0,  999.0,  999.0,  999.0,  999.0,  999.0,  999.0,  999.0,  999.0,  999.0,  999.0,  999.0,  999.0,  999.0,  999.0,  999.0,  999.0,  999.0,  999.0,  999.0,  999.0,  999.0
2016/03/23 21:20,  999.0,   -0.2,    0.0,    0.0,   -0.0,    0.0,    0.1,    0.2,    0.4,    0.6,    2.7,    5.4,    5.9,   10.0,   12.5,   13.5,   15.4,   15.8,   15.1,   15.9,   18.3,   18.6,   19.7,   18.6,   17.1,   16.0,   16.5,   15.2,   14.1,   15.1,   16.5,   17.6,   19.0,   20.0,   20.3,   21.3,   21.6,   24.1,   26.4,  999.0,  999.0,  999.0,  999.0,  999.0,  999.0,  999.0,  999.0,  999.0,  999.0,  999.0,  999.0,  999.0,  999.0,  999.0,  999.0,  999.0,  999.0,  999.0,  999.0,  999.0,  999.0,  999.0,  999.0,  999.0,  999.0,  999.0,  999.0,  999.0,  999.0,  999.0,  999.0,  999.0,  999.0,  999.0,  999.0,  999.0,  999.0,  999.0,  999.0,  999.0
2016/03/23 21:30,  999.0,   -0.1,    0.4,    0.1,   -0.1,    0.2,    0.2,    0.8,    2.8,    5.3,    3.7,    5.8,    6.7,    8.8,   10.0,   12.2,   12.5,   16.9,   17.5,   18.2,   18.1,   19.4,   19.1,   18.0,   16.7,   15.7,   15.8,   15.2,   16.1,   17.1,   17.2,   18.6,   19.5,   20.7,   19.6,   20.4,   21.5,   23.3,   25.6,  999.0,  999.0,  999.0,  999.0,  999.0,  999.0,  999.0,  999.0,  999.0,  999.0,  999.0,  999.0,  999.0,  999.0,  999.0,  999.0,  999.0,  999.0,  999.0,  999.0,  999.0,  999.0,  999.0,  999.0,  999.0,  999.0,  999.0,  999.0,  999.0,  999.0,  999.0,  999.0,  999.0,  999.0,  999.0,  999.0,  999.0,  999.0,  999.0,  999.0,  999.0
2016/03/23 21:40,  999.0,    0.0,   -0.2,   -0.0,    0.2,    0.8,    2.5,    4.3,    5.4,    4.6,    6.3,    7.2,    7.5,    8.7,    9.7,   12.3,   14.0,   15.3,   16.3,   16.8,   16.9,   18.3,   16.9,   16.8,   16.1,   15.3,   14.4,   13.3,   13.2,   14.3,   15.8,   17.3,   17.6,   19.3,   20.1,   20.2,   22.8,  999.0,  999.0,  999.0,  999.0,  999.0,  999.0,  999.0,  999.0,  999.0,  999.0,  999.0,  999.0,  999.0,  999.0,  999.0,  999.0,  999.0,  999.0,  999.0,  999.0,  999.0,  999.0,  999.0,  999.0,  999.0,  999.0,  999.0,  999.0,  999.0,  999.0,  999.0,  999.0,  999.0,  999.0,  999.0,  999.0,  999.0,  999.0,  999.0,  999.0,  999.0,  999.0,  999.0
2016/03/23 21:50,  999.0,   -0.1,    0.0,    0.1,    0.2,    0.1,    0.3,    0.9,    2.5,    3.4,    3.9,    3.8,    6.8,    8.3,    8.7,   10.9,   14.1,   13.8,   15.3,  999.0,  999.0,   15.8,   16.2,   16.3,   15.9,   14.9,   14.0,   13.6,   13.8,   15.3,   16.6,   18.3,   19.9,   20.6,   20.4,   21.4,   22.4,  999.0,  999.0,  999.0,  999.0,  999.0,  999.0,  999.0,  999.0,  999.0,  999.0,  999.0,  999.0,  999.0,  999.0,  999.0,  999.0,  999.0,  999.0,  999.0,  999.0,  999.0,  999.0,  999.0,  999.0,  999.0,  999.0,  999.0,  999.0,  999.0,  999.0,  999.0,  999.0,  999.0,  999.0,  999.0,  999.0,  999.0,  999.0,  999.0,  999.0,  999.0,  999.0,  999.0
2016/03/23 22:00,  999.0,    0.1,    0.1,    0.1,    0.1,    0.4,    0.9,    2.0,    4.5,    5.5,    4.6,    3.8,    6.0,    6.0,    7.6,   10.7,   13.1,   14.3,   15.2,   15.8,   15.9,   14.5,   15.7,   16.2,   17.1,   14.7,   14.7,   14.6,   14.2,   14.8,   15.9,   17.2,   18.2,   19.6,   21.2,   21.5,  999.0,  999.0,  999.0,  999.0,  999.0,  999.0,  999.0,  999.0,  999.0,  999.0,  999.0,  999.0,  999.0,  999.0,  999.0,  999.0,    0.1,  999.0,   -0.1,   -0.5,   -0.2,   -0.6,   -0.0,   -0.2,  999.0,   -0.1,  999.0,    0.2,  999.0,  999.0,  999.0,  999.0,  999.0,  999.0,  999.0,  999.0,  999.0,  999.0,  999.0,  999.0,  999.0,  999.0,  999.0,  999.0
2016/03/23 22:10,  999.0,    0.0,    0.1,   -0.1,   -0.2,    0.5,    0.5,    5.1,    5.9,    5.3,    5.9,    6.0,    8.2,    7.7,    9.7,   11.8,   12.6,   14.6,   15.7,   16.4,   16.0,   17.3,   16.8,   16.5,   16.0,   15.1,   14.6,   13.9,   13.3,   14.9,   16.1,   16.8,   18.1,   19.7,   21.1,  999.0,  999.0,  999.0,  999.0,  999.0,  999.0,  999.0,  999.0,  999.0,  999.0,  999.0,  999.0,  999.0,  999.0,  999.0,  999.0,    0.1,    0.1,  999.0,   -0.3,  999.0,   -0.2,  999.0,    0.3,    0.2,    0.0,    0.1,   -0.1,    0.3,  999.0,  999.0,  999.0,  999.0,  999.0,  999.0,  999.0,  999.0,  999.0,  999.0,  999.0,  999.0,  999.0,  999.0,  999.0,  999.0
2016/03/23 22:20,  999.0,   -0.1,    0.1,   -0.0,    0.2,    0.4,    0.3,    0.6,    1.5,    4.7,    3.5,    4.7,    4.9,    7.2,    7.1,    8.1,    9.3,   11.9,   14.1,   15.1,  999.0,   15.1,   15.6,   15.8,   15.5,   14.7,   13.9,   13.9,   14.6,   15.7,   16.6,   17.2,   18.1,   19.7,   21.7,  999.0,  999.0,  999.0,  999.0,  999.0,  999.0,  999.0,  999.0,  999.0,  999.0,  999.0,  999.0,  999.0,  999.0,  999.0,  999.0,    0.0,    0.4,    0.0,    0.1,  999.0,    0.2,    0.3,  999.0,   -0.0,   -0.1,  999.0,    0.2,  999.0,  999.0,  999.0,  999.0,  999.0,  999.0,  999.0,  999.0,  999.0,  999.0,  999.0,  999.0,  999.0,  999.0,  999.0,  999.0,  999.0
2016/03/23 22:30,  999.0,    0.0,   -0.2,   -0.1,    0.0,    0.3,    0.0,   -0.1,    0.4,    0.6,    1.3,    0.9,    1.6,    2.8,    5.0,    6.0,    8.3,   11.9,   13.5,   15.5,   15.1,   14.9,   15.9,   15.2,   14.4,   13.6,   13.0,   13.5,   14.6,   16.2,   17.1,   18.4,   20.1,   20.4,   20.6,  999.0,  999.0,  999.0,  999.0,  999.0,  999.0,  999.0,  999.0,  999.0,  999.0,  999.0,  999.0,  999.0,  999.0,  999.0,  999.0,  999.0,  999.0,  999.0,  999.0,  999.0,  999.0,  999.0,  999.0,  999.0,  999.0,  999.0,  999.0,  999.0,  999.0,  999.0,  999.0,  999.0,  999.0,  999.0,  999.0,  999.0,  999.0,  999.0,  999.0,  999.0,  999.0,  999.0,  999.0,  999.0
2016/03/23 22:40,  999.0,   -0.2,   -0.0,    0.4,    0.2,   -0.1,    0.1,   -0.2,    0.1,    0.4,    0.7,    1.6,    2.8,    4.1,    4.8,    6.5,    7.3,   10.7,   11.4,  999.0,   15.9,   16.0,   15.9,   14.2,   13.5,   12.9,   12.6,   13.6,   15.3,   16.5,   17.9,   18.9,   20.6,   21.0,  999.0,  999.0,  999.0,  999.0,  999.0,  999.0,  999.0,  999.0,  999.0,  999.0,  999.0,  999.0,  999.0,  999.0,  999.0,  999.0,  999.0,  999.0,  999.0,  999.0,  999.0,  999.0,  999.0,  999.0,  999.0,  999.0,  999.0,  999.0,  999.0,  999.0,  999.0,  999.0,  999.0,  999.0,  999.0,  999.0,  999.0,  999.0,  999.0,  999.0,  999.0,  999.0,  999.0,  999.0,  999.0,  999.0
2016/03/23 22:50,  999.0,    0.2,    0.1,    0.2,   -0.1,   -0.2,    0.1,    0.1,    0.1,    0.0,   -0.5,    0.9,    2.1,    3.6,    4.0,    5.2,    7.2,   10.1,   13.0,   16.1,   17.4,   17.0,   16.8,   16.9,   16.6,   15.9,   16.4,   16.8,   17.6,   18.8,   19.6,   21.1,   23.1,   24.3,   25.3,   26.3,   24.9,  999.0,  999.0,  999.0,  999.0,  999.0,  999.0,  999.0,  999.0,  999.0,  999.0,  999.0,  999.0,  999.0,  999.0,  999.0,  999.0,  999.0,    0.2,  999.0,  999.0,  999.0,  999.0,  999.0,  999.0,  999.0,  999.0,  999.0,  999.0,  999.0,  999.0,  999.0,  999.0,  999.0,  999.0,  999.0,  999.0,  999.0,  999.0,  999.0,  999.0,  999.0,  999.0,  999.0
2016/03/23 23:00,  999.0,    0.1,    0.0,   -0.4,   -0.2,   -0.1,    0.0,   -0.2,   -0.1,    0.4,    0.6,    0.7,    1.4,    2.8,    3.9,    5.2,    6.7,    7.0,   11.1,  999.0,  999.0,  999.0,   16.0,   16.3,   16.2,   15.2,   14.0,   13.8,   14.8,   16.3,   17.4,   18.4,   19.6,   21.8,   23.0,  999.0,  999.0,  999.0,  999.0,  999.0,  999.0,  999.0,  999.0,  999.0,  999.0,  999.0,  999.0,  999.0,  999.0,  999.0,  999.0,  999.0,  999.0,  999.0,  999.0,  999.0,  999.0,  999.0,  999.0,  999.0,  999.0,  999.0,  999.0,  999.0,  999.0,  999.0,  999.0,  999.0,  999.0,  999.0,  999.0,  999.0,  999.0,  999.0,  999.0,  999.0,  999.0,  999.0,  999.0,  999.0
2016/03/23 23:10,  999.0,    0.3,    0.1,    0.1,    0.0,   -0.1,    0.0,   -0.1,   -0.0,   -0.1,    0.0,    0.3,    0.3,    1.6,    2.4,    3.0,    3.9,    6.9,  999.0,  999.0,  999.0,   19.6,   19.5,   18.3,   17.3,   15.0,   13.5,   12.4,   12.1,   14.1,   15.3,   16.5,   18.1,   20.0,   22.1,   23.8,   24.1,   23.7,   24.2,  999.0,  999.0,  999.0,  999.0,  999.0,  999.0,  999.0,  999.0,  999.0,  999.0,  999.0,  999.0,  999.0,  999.0,    0.0,  999.0,    0.4,  999.0,  999.0,  999.0,  999.0,  999.0,  999.0,  999.0,  999.0,  999.0,  999.0,  999.0,  999.0,  999.0,  999.0,  999.0,  999.0,  999.0,  999.0,  999.0,  999.0,  999.0,  999.0,  999.0,  999.0
2016/03/23 23:20,  999.0,    0.0,    0.0,    0.2,    0.2,    0.0,   -0.1,   -0.1,   -0.1,    0.1,    0.1,    0.2,    0.7,    2.2,    3.4,    5.0,    7.4,    8.8,   12.7,   15.5,  999.0,  999.0,   18.8,   19.1,   16.5,   14.6,   12.1,   11.0,   11.5,   12.9,   14.9,   16.2,   17.6,   19.6,   21.6,   22.6,   21.7,   20.2,   22.2,  999.0,  999.0,  999.0,  999.0,  999.0,  999.0,  999.0,  999.0,  999.0,  999.0,  999.0,  999.0,  999.0,  999.0,  999.0,  999.0,  999.0,  999.0,  999.0,  999.0,  999.0,  999.0,  999.0,  999.0,  999.0,  999.0,  999.0,  999.0,  999.0,  999.0,  999.0,  999.0,  999.0,  999.0,  999.0,  999.0,  999.0,  999.0,  999.0,  999.0,  999.0
2016/03/23 23:30,  999.0,   -0.0,    0.1,   -0.0,    0.1,   -0.1,   -0.1,   -0.1,   -0.2,   -0.0,    0.5,    0.1,  999.0,    2.3,    4.0,    5.7,    6.9,    8.7,   10.7,   12.9,   15.7,   17.9,   18.0,   18.2,   16.8,   15.9,   15.0,   13.8,   13.6,   14.4,   16.1,   17.5,   18.6,   20.1,   21.1,   21.5,   22.5,   23.3,   24.2,   25.2,   26.4,  999.0,  999.0,   29.3,  999.0,  999.0,  999.0,  999.0,  999.0,  999.0,  999.0,  999.0,  999.0,  999.0,  999.0,  999.0,  999.0,  999.0,  999.0,  999.0,  999.0,  999.0,  999.0,  999.0,  999.0,  999.0,  999.0,  999.0,  999.0,  999.0,  999.0,  999.0,  999.0,  999.0,  999.0,  999.0,  999.0,  999.0,  999.0,  999.0
2016/03/23 23:40,  999.0,   -0.3,    0.2,    0.1,    0.1,    0.2,   -0.0,    0.2,    0.2,    0.2,   -0.7,   -1.0,    1.5,    2.6,    2.3,    4.2,    7.7,    9.6,   11.8,   13.3,   15.6,   15.7,   16.1,   17.7,   17.0,   16.6,   15.6,   14.0,   12.8,   13.7,   15.5,   17.9,   19.3,   21.8,   22.4,   22.6,   23.0,   22.8,   23.5,   23.7,  999.0,  999.0,  999.0,  999.0,  999.0,  999.0,  999.0,  999.0,  999.0,  999.0,  999.0,  999.0,  999.0,  999.0,  999.0,  999.0,  999.0,  999.0,  999.0,  999.0,  999.0,  999.0,  999.0,  999.0,  999.0,  999.0,  999.0,  999.0,  999.0,  999.0,  999.0,  999.0,  999.0,  999.0,  999.0,  999.0,  999.0,  999.0,  999.0,  999.0
2016/03/23 23:50,  999.0,    0.0,    0.2,    0.2,    0.0,   -0.6,   -1.3,    0.3,    0.5,    1.5,    0.8,    0.2,    0.6,    2.2,    3.3,    5.9,    7.0,  999.0,  999.0,  999.0,  999.0,  999.0,  999.0,   16.1,   15.6,   13.9,   13.6,   13.0,   11.6,   12.9,   14.2,   16.2,   18.7,   21.1,   22.1,   23.5,   22.7,   24.1,   24.8,  999.0,  999.0,  999.0,  999.0,  999.0,  999.0,  999.0,  999.0,  999.0,  999.0,  999.0,  999.0,  999.0,  999.0,  999.0,  999.0,  999.0,  999.0,  999.0,  999.0,  999.0,  999.0,  999.0,  999.0,  999.0,  999.0,  999.0,  999.0,  999.0,  999.0,  999.0,  999.0,  999.0,  999.0,  999.0,  999.0,  999.0,  999.0,  999.0,  999.0,  999.0
